Sigfox identifier Datetime Temperature Humidity SNR
003C5BC3 2019-04-12 12:22:47 21.1 17 20.2
003C5BC3 2019-04-12 11:50:18 21.2 17 20.3
003C5BC3 2019-04-12 11:17:49 21.2 18 20.4
003C5BC3 2019-04-12 10:45:20 21.1 18 20.4
003C5BC3 2019-04-12 10:12:51 21.1 18 20.5
003C5BC3 2019-04-12 09:40:21 21 18 20.6
003C5BC3 2019-04-12 09:07:53 20.9 18 20.7
003C5BC3 2019-04-12 08:35:24 20.9 18 20.8
003C5BC3 2019-04-12 08:02:56 20.9 18 20.9
003C5BC3 2019-04-12 07:30:26 20.9 18 20.9
003C5BC3 2019-04-12 06:57:58 20.9 18 21.1
003C5BC3 2019-04-12 06:24:56 20.9 18 21.5
003C5BC3 2019-04-12 05:52:27 21 18 21.5
003C5BC3 2019-04-12 05:19:57 21 18 21.4
003C5BC3 2019-04-12 04:47:28 21 18 21.3
003C5BC3 2019-04-12 04:14:59 21 18 21.1
003C5BC3 2019-04-12 03:42:30 21 18 21.2
003C5BC3 2019-04-12 03:10:01 21.1 18 21.1
003C5BC3 2019-04-12 02:37:32 21.1 18 21
003C5BC3 2019-04-12 02:05:04 21.2 18 21.2
003C5BC3 2019-04-12 01:32:35 21.2 18 21.2
003C5BC3 2019-04-12 01:00:05 21.3 18 21.2
003C5BC3 2019-04-12 00:27:36 21.3 18 21
003C5BC3 2019-04-11 23:55:07 21.4 18 21.1
003C5BC3 2019-04-11 23:22:37 21.5 18 21.1
003C5BC3 2019-04-11 22:50:08 21.5 18 21.1
003C5BC3 2019-04-11 22:17:39 21.5 18 21
003C5BC3 2019-04-11 21:45:10 21.5 18 21.2
003C5BC3 2019-04-11 21:12:42 21.5 18 21.1
003C5BC3 2019-04-11 20:40:13 21.5 18 21
003C5BC3 2019-04-11 20:07:44 21.4 17 21.1
003C5BC3 2019-04-11 19:35:14 21.3 17 21
003C5BC3 2019-04-11 19:02:46 21.3 17 20.9
003C5BC3 2019-04-11 18:30:17 21.3 17 20.8
003C5BC3 2019-04-11 17:57:50 21.3 17 20.6
003C5BC3 2019-04-11 17:25:22 21.4 17 20.7
003C5BC3 2019-04-11 16:52:54 21.4 17 20.8
003C5BC3 2019-04-11 16:20:26 21.4 18 20.7
003C5BC3 2019-04-11 15:47:58 21.3 18 20.7
003C5BC3 2019-04-11 15:15:29 21.2 18 20.7
003C5BC3 2019-04-11 14:43:01 21.1 18 20.8
003C5BC3 2019-04-11 14:10:32 21.1 18 20.6
003C5BC3 2019-04-11 13:38:04 21 18 20.8
003C5BC3 2019-04-11 13:05:36 20.9 18 20.9
003C5BC3 2019-04-11 12:33:06 21 18 20.9
003C5BC3 2019-04-11 12:00:38 21 18 20.8
003C5BC3 2019-04-11 11:28:09 21 18 20.6
003C5BC3 2019-04-11 10:55:40 20.9 18 20.6
003C5BC3 2019-04-11 10:23:11 20.8 18 20.6
003C5BC3 2019-04-11 09:50:41 20.8 18 20.4
003C5BC3 2019-04-11 09:18:12 20.8 18 20.5
003C5BC3 2019-04-11 08:45:44 20.8 18 20.7
003C5BC3 2019-04-11 08:13:14 20.8 18 20.5
003C5BC3 2019-04-11 07:40:45 20.8 18 20.6
003C5BC3 2019-04-11 07:08:17 20.8 19 20.6
003C5BC3 2019-04-11 06:35:47 20.8 19 20.5
003C5BC3 2019-04-11 06:03:19 20.8 19 20.6
003C5BC3 2019-04-11 05:30:50 20.8 19 20.7
003C5BC3 2019-04-11 04:58:21 20.8 19 20.7
003C5BC3 2019-04-11 04:25:52 20.9 19 20.9
003C5BC3 2019-04-11 03:53:24 21.1 18 20.6
003C5BC3 2019-04-11 03:52:08 20.9 19 20.4
003C5BC3 2019-04-11 03:19:39 20.9 19 20.5
003C5BC3 2019-04-11 02:47:10 20.9 19 20.6
003C5BC3 2019-04-11 02:14:40 20.9 19 20.5
003C5BC3 2019-04-11 01:42:11 20.9 19 20.4
003C5BC3 2019-04-11 01:09:42 21 19 20.6
003C5BC3 2019-04-11 00:37:13 21 19 20.5
003C5BC3 2019-04-11 00:04:44 21.1 19 20.3
003C5BC3 2019-04-10 23:32:15 21 19 20.2
003C5BC3 2019-04-10 22:59:46 21 19 20.2
003C5BC3 2019-04-10 22:27:16 21 19 20.7
003C5BC3 2019-04-10 21:54:49 21 19 20.8
003C5BC3 2019-04-10 21:22:18 21 19 20.9
003C5BC3 2019-04-10 20:49:50 21 19 20.8
003C5BC3 2019-04-10 20:17:22 20.9 19 20.7
003C5BC3 2019-04-10 19:44:53 20.9 19 20.7
003C5BC3 2019-04-10 19:12:25 20.8 19 20.6
003C5BC3 2019-04-10 18:39:57 20.8 19 20.5
003C5BC3 2019-04-10 18:07:29 20.8 19 20.5
003C5BC3 2019-04-10 17:35:00 20.8 19 20.5
003C5BC3 2019-04-10 17:02:32 20.8 19 20.5
003C5BC3 2019-04-10 16:30:03 20.9 20 20.5
003C5BC3 2019-04-10 15:57:34 20.9 20 20.6
003C5BC3 2019-04-10 15:25:04 20.9 20 20.4
003C5BC3 2019-04-10 14:52:36 20.9 20 20.6
003C5BC3 2019-04-10 14:20:07 21 20 20.6
003C5BC3 2019-04-10 13:47:38 20.9 20 20.5
003C5BC3 2019-04-10 13:15:10 20.9 21 20.6
003C5BC3 2019-04-10 12:42:42 20.9 21 20.7
003C5BC3 2019-04-10 12:10:13 20.9 21 21
003C5BC3 2019-04-10 11:37:45 20.8 21 20.8
003C5BC3 2019-04-10 11:05:16 20.8 21 21
003C5BC3 2019-04-10 10:32:46 20.8 22 21.3
003C5BC3 2019-04-10 10:00:17 20.8 22 21.3
003C5BC3 2019-04-10 09:27:49 20.7 23 21.4
003C5BC3 2019-04-10 08:55:20 20.6 23 21
003C5BC3 2019-04-10 08:22:51 20.6 23 21.1
003C5BC3 2019-04-10 07:50:21 20.7 23 20.9
003C5BC3 2019-04-10 07:17:52 20.7 24 21
003C5BC3 2019-04-10 06:45:23 20.6 24 21
003C5BC3 2019-04-10 06:12:53 20.6 24 21.1
003C5BC3 2019-04-10 05:40:22 20.7 24 21
003C5BC3 2019-04-10 05:07:54 20.6 24 21
003C5BC3 2019-04-10 04:35:25 20.6 24 21.1
003C5BC3 2019-04-10 04:02:56 20.6 25 20.9
003C5BC3 2019-04-10 03:30:26 20.7 25 20.7
003C5BC3 2019-04-10 02:58:00 20.7 25 20.6
003C5BC3 2019-04-10 02:25:32 20.7 26 20.6
003C5BC3 2019-04-10 01:53:04 20.7 26 20.7
003C5BC3 2019-04-10 01:20:35 20.7 26 20.8
003C5BC3 2019-04-10 00:47:35 20.7 26 20.8
003C5BC3 2019-04-10 00:15:05 20.7 26 20.7
003C5BC3 2019-04-09 23:42:36 20.8 27 20.6
003C5BC3 2019-04-09 23:10:07 20.8 27 20.5
003C5BC3 2019-04-09 22:37:38 20.8 27 20.5
003C5BC3 2019-04-09 22:05:10 20.8 27 20.5
003C5BC3 2019-04-09 21:32:41 20.8 27 20.5
003C5BC3 2019-04-09 21:00:14 20.8 27 20.7
003C5BC3 2019-04-09 20:27:46 20.8 27 20.8
003C5BC3 2019-04-09 19:55:18 20.8 27 21
003C5BC3 2019-04-09 19:22:49 20.8 27 21
003C5BC3 2019-04-09 18:50:21 20.8 27 21.2
003C5BC3 2019-04-09 18:17:51 20.8 27 21.3
003C5BC3 2019-04-09 17:45:22 20.9 27 21.4
003C5BC3 2019-04-09 17:12:54 20.9 27 21.5
003C5BC3 2019-04-09 16:40:26 20.9 27 21.7
003C5BC3 2019-04-09 16:07:57 20.9 27 21.9
003C5BC3 2019-04-09 15:35:29 20.9 27 22.1
003C5BC3 2019-04-09 15:03:00 20.9 26 22.2
003C5BC3 2019-04-09 14:30:30 21 26 22.4
003C5BC3 2019-04-09 13:58:01 21 26 22.5
003C5BC3 2019-04-09 13:25:32 21 26 22.8
003C5BC3 2019-04-09 12:53:03 21 26 22.8
003C5BC3 2019-04-09 12:20:33 21 26 22.8
003C5BC3 2019-04-09 11:48:04 21 26 22.8
003C5BC3 2019-04-09 11:15:34 20.9 26 22.9
003C5BC3 2019-04-09 10:43:05 20.9 26 23
003C5BC3 2019-04-09 10:10:35 20.8 26 23.2
003C5BC3 2019-04-09 09:38:06 20.9 26 23.3
003C5BC3 2019-04-09 09:05:36 20.8 26 23.3
003C5BC3 2019-04-09 08:33:06 20.8 26 23.4
003C5BC3 2019-04-09 08:00:36 20.8 25 23.4
003C5BC3 2019-04-09 07:28:07 20.8 25 23.3
003C5BC3 2019-04-09 06:55:39 20.8 25 23.3
003C5BC3 2019-04-09 06:23:10 20.8 25 23.3
003C5BC3 2019-04-09 05:50:41 20.8 25 23.2
003C5BC3 2019-04-09 05:18:13 20.8 25 23.8
003C5BC3 2019-04-09 04:45:43 20.8 25 23.7
003C5BC3 2019-04-09 04:13:15 20.9 25 23.7
003C5BC3 2019-04-09 03:40:47 20.9 26 23.6
003C5BC3 2019-04-09 03:08:19 20.9 26 23.6
003C5BC3 2019-04-09 02:03:21 20.9 26 23.4
003C5BC3 2019-04-09 01:30:53 20.9 26 23.5
003C5BC3 2019-04-09 00:58:25 20.9 26 23.4
003C5BC3 2019-04-09 00:25:56 20.9 26 23.2
003C5BC3 2019-04-08 23:53:27 20.9 26 23.2
003C5BC3 2019-04-08 23:20:57 20.9 26 23.1
003C5BC3 2019-04-08 22:48:29 21 26 23
003C5BC3 2019-04-08 22:16:01 21 26 22.9
003C5BC3 2019-04-08 21:42:58 21 26 22.9
003C5BC3 2019-04-08 21:10:30 21 26 22.8
003C5BC3 2019-04-08 20:38:01 21 26 22.7
003C5BC3 2019-04-08 20:05:32 21 26 22.7
003C5BC3 2019-04-08 19:33:03 21 26 22.6
003C5BC3 2019-04-08 19:00:34 20.9 26 22.7
003C5BC3 2019-04-08 18:28:06 21 26 22.7
003C5BC3 2019-04-08 17:55:36 21 26 22.6
003C5BC3 2019-04-08 17:23:07 21 26 22.7
003C5BC3 2019-04-08 16:50:40 21 26 21.9
003C5BC3 2019-04-08 16:18:11 21.1 26 21.9
003C5BC3 2019-04-08 15:45:42 21.1 27 21.9
003C5BC3 2019-04-08 15:13:15 21.1 26 21.8
003C5BC3 2019-04-08 14:40:44 21.1 26 21.7
003C5BC3 2019-04-08 14:08:15 21.1 26 21.7
003C5BC3 2019-04-08 13:35:46 21.1 26 21.8
003C5BC3 2019-04-08 13:03:17 21 26 21.7
003C5BC3 2019-04-08 12:30:49 20.9 26 21.7
003C5BC3 2019-04-08 11:58:20 20.8 25 21.8
003C5BC3 2019-04-08 11:25:52 20.8 25 21.8
003C5BC3 2019-04-08 10:53:24 20.7 25 21.7
003C5BC3 2019-04-08 10:20:55 20.7 25 21.9
003C5BC3 2019-04-08 09:48:27 20.6 24 21.8
003C5BC3 2019-04-08 09:15:58 20.5 24 21.8
003C5BC3 2019-04-08 08:43:30 20.5 24 21.7
003C5BC3 2019-04-08 08:11:03 20.4 24 21.6
003C5BC3 2019-04-08 07:38:36 20.4 23 21.5
003C5BC3 2019-04-08 07:06:07 20.4 23 21.6
003C5BC3 2019-04-08 06:33:38 20.5 23 21.5
003C5BC3 2019-04-08 06:01:09 20.5 23 21.3
003C5BC3 2019-04-08 05:28:40 20.5 23 21.1
003C5BC3 2019-04-08 04:56:10 20.5 23 21.2
003C5BC3 2019-04-08 04:23:41 20.6 23 21.3
003C5BC3 2019-04-08 03:51:12 20.6 23 21.1
003C5BC3 2019-04-08 03:18:42 20.6 23 21.1
003C5BC3 2019-04-08 02:46:13 20.6 23 21.3
003C5BC3 2019-04-08 02:13:44 20.6 23 21.1
003C5BC3 2019-04-08 01:41:14 20.7 23 21
003C5BC3 2019-04-08 01:08:45 20.7 23 21
003C5BC3 2019-04-08 00:36:17 20.7 23 21
003C5BC3 2019-04-08 00:03:49 20.7 23 20.9
003C5BC3 2019-04-07 23:31:20 20.8 23 21
003C5BC3 2019-04-07 22:58:52 20.8 22 21
003C5BC3 2019-04-07 22:26:23 20.8 22 20.8
003C5BC3 2019-04-07 21:53:54 20.9 22 20.8
003C5BC3 2019-04-07 21:21:25 21 22 21
003C5BC3 2019-04-07 20:48:56 21 22 20.8
003C5BC3 2019-04-07 20:16:28 21 22 20.9
003C5BC3 2019-04-07 19:43:58 21.1 22 21.2
003C5BC3 2019-04-07 19:11:30 21.1 22 21.3
003C5BC3 2019-04-07 18:38:28 21.1 22 21.5
003C5BC3 2019-04-07 18:06:00 21.1 22 21.6
003C5BC3 2019-04-07 17:33:31 21.1 22 21.6
003C5BC3 2019-04-07 17:01:03 21.1 22 21.6
003C5BC3 2019-04-07 16:28:35 21 22 21.7
003C5BC3 2019-04-07 15:56:07 20.9 22 21.7
003C5BC3 2019-04-07 15:23:39 20.8 22 21.6
003C5BC3 2019-04-07 14:51:11 20.7 22 21.6
003C5BC3 2019-04-07 14:18:42 20.6 22 21.5
003C5BC3 2019-04-07 13:46:14 20.6 22 21.6
003C5BC3 2019-04-07 13:13:46 20.6 21 21.8
003C5BC3 2019-04-07 12:41:18 20.6 21 21.7
003C5BC3 2019-04-07 12:08:51 20.6 21 21.7
003C5BC3 2019-04-07 11:36:24 20.6 21 21.6
003C5BC3 2019-04-07 11:03:55 20.5 21 21.6
003C5BC3 2019-04-07 10:31:28 20.5 21 21.6
003C5BC3 2019-04-07 09:59:00 20.5 21 21.4
003C5BC3 2019-04-07 09:26:32 20.5 21 21.5
003C5BC3 2019-04-07 08:54:03 20.5 21 21.3
003C5BC3 2019-04-07 08:21:35 20.6 21 20.5
003C5BC3 2019-04-07 07:49:10 20.6 21 20.3
003C5BC3 2019-04-07 07:16:40 20.6 21 20.6
003C5BC3 2019-04-07 06:44:10 20.7 21 20.5
003C5BC3 2019-04-07 06:11:41 20.7 21 20.2
003C5BC3 2019-04-07 05:39:12 20.8 21 20.4
003C5BC3 2019-04-07 05:06:44 20.8 21 20.4
003C5BC3 2019-04-07 04:34:15 20.8 21 20.4
003C5BC3 2019-04-07 04:01:46 20.8 21 20.4
003C5BC3 2019-04-07 03:29:18 20.9 21 20.1
003C5BC3 2019-04-07 02:56:52 20.9 21 20
003C5BC3 2019-04-07 02:24:22 20.9 21 20.2
003C5BC3 2019-04-07 01:51:53 21 21 20.3
003C5BC3 2019-04-07 01:19:26 21 21 19.9
003C5BC3 2019-04-07 00:46:56 21.1 21 19.9
003C5BC3 2019-04-07 00:14:29 21.2 21 19.9
003C5BC3 2019-04-06 23:42:01 21.2 21 19.8
003C5BC3 2019-04-06 23:09:33 21.2 21 19.9
003C5BC3 2019-04-06 22:37:04 21.3 21 19.8
003C5BC3 2019-04-06 22:04:37 21.4 21 20.1
003C5BC3 2019-04-06 21:32:08 21.4 21 20.4
003C5BC3 2019-04-06 20:59:40 21.4 21 20.3
003C5BC3 2019-04-06 20:27:12 21.4 21 20.6
003C5BC3 2019-04-06 19:54:44 21.4 21 20.7
003C5BC3 2019-04-06 19:22:15 21.4 21 20.9
003C5BC3 2019-04-06 18:49:45 21.5 21 21
003C5BC3 2019-04-06 18:17:16 21.4 21 21.1
003C5BC3 2019-04-06 17:44:48 21.4 21 20.8
003C5BC3 2019-04-06 17:12:17 21.3 21 20.8
003C5BC3 2019-04-06 16:39:47 21.2 21 21
003C5BC3 2019-04-06 16:07:18 21.1 21 21.1
003C5BC3 2019-04-06 15:34:16 20.9 21 21.2
003C5BC3 2019-04-06 15:01:46 20.8 21 21.1
003C5BC3 2019-04-06 14:29:19 20.8 21 21.2
003C5BC3 2019-04-06 13:56:48 20.7 21 21.2
003C5BC3 2019-04-06 13:24:19 20.7 21 21
003C5BC3 2019-04-06 12:51:50 20.7 21 21
003C5BC3 2019-04-06 12:19:21 20.7 21 21.1
003C5BC3 2019-04-06 11:46:53 20.7 21 21
003C5BC3 2019-04-06 11:14:24 20.7 21 21.1
003C5BC3 2019-04-06 10:41:55 20.6 21 21.1
003C5BC3 2019-04-06 10:09:27 20.6 21 21.2
003C5BC3 2019-04-06 09:36:59 20.6 20 21.4
003C5BC3 2019-04-06 09:04:30 20.7 20 21.3
003C5BC3 2019-04-06 08:32:02 20.7 20 21.1
003C5BC3 2019-04-06 07:59:35 20.7 20 21.1
003C5BC3 2019-04-06 07:27:06 20.8 20 21
003C5BC3 2019-04-06 06:54:39 20.8 20 21
003C5BC3 2019-04-06 06:22:10 20.8 20 21.2
003C5BC3 2019-04-06 05:49:43 20.9 20 21.2
003C5BC3 2019-04-06 05:17:13 20.9 20 21.1
003C5BC3 2019-04-06 04:44:44 21 20 21.3
003C5BC3 2019-04-06 04:12:14 21 20 21.3
003C5BC3 2019-04-06 03:39:46 21.1 20 21.2
003C5BC3 2019-04-06 03:07:17 21.1 20 21.1
003C5BC3 2019-04-06 02:34:48 21.2 20 21
003C5BC3 2019-04-06 02:02:20 21.2 20 21
003C5BC3 2019-04-06 01:29:51 21.3 20 21
003C5BC3 2019-04-06 00:57:21 21.4 20 20.9
003C5BC3 2019-04-06 00:24:51 21.4 20 21.1
003C5BC3 2019-04-05 23:52:22 21.5 19 21.3
003C5BC3 2019-04-05 23:19:52 21.7 19 21.3
003C5BC3 2019-04-05 22:47:21 21.7 19 21.4
003C5BC3 2019-04-05 22:14:52 21.9 19 21.4
003C5BC3 2019-04-05 21:42:22 21.9 19 21.5
003C5BC3 2019-04-05 21:09:53 22 19 21.5
003C5BC3 2019-04-05 20:37:23 22 19 21.4
003C5BC3 2019-04-05 20:04:54 22.1 19 21.2
003C5BC3 2019-04-05 19:32:24 22.1 19 21
003C5BC3 2019-04-05 18:59:56 22 19 21.2
003C5BC3 2019-04-05 18:27:27 21.9 18 21.3
003C5BC3 2019-04-05 17:54:58 21.9 19 21.4
003C5BC3 2019-04-05 17:22:32 21.8 19 21.3
003C5BC3 2019-04-05 16:50:02 21.9 20 21.2
003C5BC3 2019-04-05 16:17:33 21.8 21 21.2
003C5BC3 2019-04-05 15:45:04 21.7 21 21.4
003C5BC3 2019-04-05 15:12:35 21.6 21 21.3
003C5BC3 2019-04-05 14:40:07 21.5 22 21.3
003C5BC3 2019-04-05 14:07:38 21.5 22 21.3
003C5BC3 2019-04-05 13:35:09 21.4 21 21.4
003C5BC3 2019-04-05 13:02:40 21.4 22 21.4
003C5BC3 2019-04-05 12:29:39 21.4 22 21.7
003C5BC3 2019-04-05 11:57:10 21.4 22 21.7
003C5BC3 2019-04-05 11:24:41 21.4 22 21.7
003C5BC3 2019-04-05 10:52:13 21.3 22 21.5
003C5BC3 2019-04-05 10:19:42 21.2 21 21.3
003C5BC3 2019-04-05 09:47:14 21.2 20 21.2
003C5BC3 2019-04-05 09:14:45 21.1 20 21.3
003C5BC3 2019-04-05 08:42:15 21.1 20 21.3
003C5BC3 2019-04-05 08:09:46 21.1 19 21.2
003C5BC3 2019-04-05 07:37:18 21.1 19 21.4
003C5BC3 2019-04-05 07:04:48 21.2 19 21.5
003C5BC3 2019-04-05 06:32:19 21.2 19 21.4
003C5BC3 2019-04-05 05:59:50 21.2 19 21.4
003C5BC3 2019-04-05 05:27:21 21.2 19 21.3
003C5BC3 2019-04-05 04:54:51 21.2 19 21.3
003C5BC3 2019-04-05 04:22:22 21.3 19 21.3
003C5BC3 2019-04-05 03:49:52 21.3 19 21.1
003C5BC3 2019-04-05 03:17:23 21.3 19 22.1
003C5BC3 2019-04-05 02:44:53 21.4 19 21.9
003C5BC3 2019-04-05 02:12:25 21.4 19 21.9
003C5BC3 2019-04-05 01:39:55 21.5 19 21.8
003C5BC3 2019-04-05 01:07:25 21.5 19 21.8
003C5BC3 2019-04-05 00:34:58 21.5 19 21.8
003C5BC3 2019-04-05 00:02:28 21.5 19 21.7
003C5BC3 2019-04-04 23:29:59 21.6 19 21.8
003C5BC3 2019-04-04 22:57:29 21.6 19 21.7
003C5BC3 2019-04-04 22:25:01 21.6 18 21.8
003C5BC3 2019-04-04 21:52:33 21.7 18 21.8
003C5BC3 2019-04-04 21:20:04 21.7 18 21.9
003C5BC3 2019-04-04 20:47:35 21.7 18 22
003C5BC3 2019-04-04 20:15:05 21.7 18 22.1
003C5BC3 2019-04-04 19:42:35 21.7 18 22.2
003C5BC3 2019-04-04 19:10:05 21.6 18 22.1
003C5BC3 2019-04-04 18:37:36 21.7 18 22.1
003C5BC3 2019-04-04 18:05:06 21.7 18 22.2
003C5BC3 2019-04-04 17:32:37 21.7 18 22.1
003C5BC3 2019-04-04 17:00:08 21.7 19 22.3
003C5BC3 2019-04-04 16:27:39 21.7 19 22.3
003C5BC3 2019-04-04 15:55:10 21.6 19 22.2
003C5BC3 2019-04-04 15:22:40 21.5 20 22.3
003C5BC3 2019-04-04 14:50:10 21.4 20 22.3
003C5BC3 2019-04-04 14:17:40 21.3 20 22.4
003C5BC3 2019-04-04 13:45:11 21.3 20 21.6
003C5BC3 2019-04-04 13:12:40 21.2 20 21.7
003C5BC3 2019-04-04 12:40:11 21.2 20 21.6
003C5BC3 2019-04-04 12:07:42 21.2 20 22
003C5BC3 2019-04-04 11:35:15 21.2 20 21.9
003C5BC3 2019-04-04 11:02:44 21.1 20 22
003C5BC3 2019-04-04 10:30:15 21.1 20 22
003C5BC3 2019-04-04 09:57:45 21.3 20 22.1
003C5BC3 2019-04-04 09:56:30 21.1 20 22.2
003C5BC3 2019-04-04 09:24:01 21.1 20 22.4
003C5BC3 2019-04-04 08:51:31 21.1 20 22.4
003C5BC3 2019-04-04 08:19:01 21.1 20 22.3
003C5BC3 2019-04-04 07:46:31 21.1 20 22.2
003C5BC3 2019-04-04 07:14:01 21.1 20 22.2
003C5BC3 2019-04-04 06:41:30 21.1 20 22
003C5BC3 2019-04-04 06:09:02 21.2 20 22
003C5BC3 2019-04-04 05:36:31 21.2 20 21.8
003C5BC3 2019-04-04 05:04:03 21.2 20 21.8
003C5BC3 2019-04-04 04:31:34 21.2 20 21.8
003C5BC3 2019-04-04 03:59:05 21.3 20 21.6
003C5BC3 2019-04-04 03:26:36 21.4 20 21.6
003C5BC3 2019-04-04 02:54:07 21.4 20 21.7
003C5BC3 2019-04-04 02:21:39 21.4 20 21.6
003C5BC3 2019-04-04 01:49:11 21.5 20 21.6
003C5BC3 2019-04-04 01:16:42 21.5 20 21.7
003C5BC3 2019-04-04 00:44:13 21.5 20 21.5
003C5BC3 2019-04-04 00:11:45 21.6 20 21.3
003C5BC3 2019-04-03 23:39:14 21.6 19 21.3
003C5BC3 2019-04-03 23:06:46 21.7 19 21.1
003C5BC3 2019-04-03 22:34:16 21.7 19 21.1
003C5BC3 2019-04-03 22:01:47 21.7 19 21
003C5BC3 2019-04-03 21:29:17 21.8 19 21
003C5BC3 2019-04-03 20:56:47 21.8 19 20.8
003C5BC3 2019-04-03 20:24:18 21.8 19 20.5
003C5BC3 2019-04-03 19:51:48 21.8 19 20.3
003C5BC3 2019-04-03 19:19:18 21.8 19 20.3
003C5BC3 2019-04-03 18:46:49 21.8 19 20.5
003C5BC3 2019-04-03 18:14:21 21.9 19 20.6
003C5BC3 2019-04-03 17:41:52 22 19 20.6
003C5BC3 2019-04-03 17:09:23 22.1 20 21.9
003C5BC3 2019-04-03 16:36:54 22 20 22
003C5BC3 2019-04-03 16:04:24 21.8 21 22.2
003C5BC3 2019-04-03 15:31:55 21.7 21 22
003C5BC3 2019-04-03 14:59:26 21.5 21 22
003C5BC3 2019-04-03 14:26:57 21.4 21 22.2
003C5BC3 2019-04-03 13:54:27 21.4 21 22.1
003C5BC3 2019-04-03 13:21:58 21.3 21 22.2
003C5BC3 2019-04-03 12:49:29 21.3 20 22.2
003C5BC3 2019-04-03 12:17:01 21.3 21 22.3
003C5BC3 2019-04-03 11:44:32 21.3 21 22.2
003C5BC3 2019-04-03 11:12:03 21.2 21 22.4
003C5BC3 2019-04-03 10:39:33 21.2 21 22.5
003C5BC3 2019-04-03 10:07:04 21.1 21 22.7
003C5BC3 2019-04-03 09:34:35 21 20 22.7
003C5BC3 2019-04-03 09:02:06 20.9 20 22.7
003C5BC3 2019-04-03 08:29:37 20.9 20 22.8
003C5BC3 2019-04-03 07:57:08 20.9 20 22.7
003C5BC3 2019-04-03 07:24:38 20.9 20 22.9
003C5BC3 2019-04-03 06:51:37 20.9 20 22.7
003C5BC3 2019-04-03 06:19:07 20.9 20 22.6
003C5BC3 2019-04-03 05:46:37 20.9 20 22.5
003C5BC3 2019-04-03 05:14:08 21 20 22.5
003C5BC3 2019-04-03 04:41:39 21 20 22.5
003C5BC3 2019-04-03 04:09:09 21 20 21.4
003C5BC3 2019-04-03 03:36:40 21.1 19 21.3
003C5BC3 2019-04-03 03:04:11 21.1 19 21
003C5BC3 2019-04-03 02:31:41 21.1 19 21.1
003C5BC3 2019-04-03 01:59:12 21.1 19 21.1
003C5BC3 2019-04-03 01:26:43 21.2 19 22.1
003C5BC3 2019-04-03 00:54:13 21.2 19 22.2
003C5BC3 2019-04-03 00:21:43 21.3 19 22.1
003C5BC3 2019-04-02 23:49:13 21.3 19 22.8
003C5BC3 2019-04-02 23:16:43 21.3 19 22.8
003C5BC3 2019-04-02 22:44:13 21.4 18 22.7
003C5BC3 2019-04-02 22:11:44 21.4 18 22.6
003C5BC3 2019-04-02 21:39:14 21.5 18 23.3
003C5BC3 2019-04-02 21:06:44 21.5 18 23.9
003C5BC3 2019-04-02 20:34:15 21.5 18 23.8
003C5BC3 2019-04-02 20:01:46 21.5 18 23.7
003C5BC3 2019-04-02 19:29:16 21.5 18 23.7
003C5BC3 2019-04-02 18:56:47 21.5 18 23.7
003C5BC3 2019-04-02 18:24:18 21.6 18 23.7
003C5BC3 2019-04-02 17:51:48 21.6 18 23.7
003C5BC3 2019-04-02 17:19:19 21.7 18 23.8
003C5BC3 2019-04-02 16:46:50 21.7 19 23.8
003C5BC3 2019-04-02 16:14:21 21.7 19 23.9
003C5BC3 2019-04-02 15:41:53 21.6 21 23.9
003C5BC3 2019-04-02 15:09:24 21.4 22 23.8
003C5BC3 2019-04-02 14:36:54 21.3 23 23.9
003C5BC3 2019-04-02 14:04:29 21.1 23 23.9
003C5BC3 2019-04-02 13:31:56 21 23 24
003C5BC3 2019-04-02 12:59:28 21 23 24
003C5BC3 2019-04-02 12:27:00 21 23 24
003C5BC3 2019-04-02 11:54:31 21 22 23.3
003C5BC3 2019-04-02 11:22:01 20.9 22 23.3
003C5BC3 2019-04-02 10:49:32 21 22 23.4
003C5BC3 2019-04-02 10:17:02 20.9 22 22.8
003C5BC3 2019-04-02 09:44:33 20.9 21 22.8
003C5BC3 2019-04-02 09:12:03 20.8 21 22.9
003C5BC3 2019-04-02 08:39:34 20.8 20 23
003C5BC3 2019-04-02 08:07:05 20.8 20 22.2
003C5BC3 2019-04-02 07:34:36 20.8 20 21
003C5BC3 2019-04-02 07:02:06 20.8 20 21.2
003C5BC3 2019-04-02 06:29:37 20.8 20 22.3
003C5BC3 2019-04-02 05:57:07 20.8 19 22.2
003C5BC3 2019-04-02 05:24:38 20.9 19 22.1
003C5BC3 2019-04-02 04:52:09 20.9 19 22.2
003C5BC3 2019-04-02 04:19:39 20.9 19 22.1
003C5BC3 2019-04-02 03:46:36 20.9 19 21.9
003C5BC3 2019-04-02 03:14:06 20.9 19 21.8
003C5BC3 2019-04-02 02:41:37 21 19 21.7
003C5BC3 2019-04-02 02:09:07 21 18 21.6
003C5BC3 2019-04-02 01:36:37 21 18 21.5
003C5BC3 2019-04-02 01:04:07 21.1 18 21.5
003C5BC3 2019-04-02 00:31:39 21.1 18 21.5
003C5BC3 2019-04-01 23:59:08 21.1 18 21.5
003C5BC3 2019-04-01 23:26:39 21.2 17 21.5
003C5BC3 2019-04-01 22:54:10 21.2 17 21.4
003C5BC3 2019-04-01 22:21:42 21.3 17 21.5
003C5BC3 2019-04-01 21:49:13 21.3 17 21.3
003C5BC3 2019-04-01 21:16:44 21.3 17 21.2
003C5BC3 2019-04-01 20:44:15 21.4 17 21.1
003C5BC3 2019-04-01 20:11:46 21.3 17 21.1
003C5BC3 2019-04-01 19:39:16 21.3 17 21.1
003C5BC3 2019-04-01 19:06:46 21.3 16 21.3
003C5BC3 2019-04-01 18:34:16 21.3 16 21.4
003C5BC3 2019-04-01 18:01:47 21.4 16 20.2
003C5BC3 2019-04-01 17:29:18 21.4 17 20.3
003C5BC3 2019-04-01 16:56:49 21.3 17 21.5
003C5BC3 2019-04-01 16:24:20 21.2 17 21.7
003C5BC3 2019-04-01 15:51:51 21.1 18 21.6
003C5BC3 2019-04-01 15:19:22 20.9 18 21.5
003C5BC3 2019-04-01 14:46:53 20.8 19 21.6
003C5BC3 2019-04-01 14:14:24 20.8 20 21.8
003C5BC3 2019-04-01 13:41:55 20.7 20 21.9
003C5BC3 2019-04-01 13:09:26 20.7 20 21.9
003C5BC3 2019-04-01 12:36:57 20.7 21 22.1
003C5BC3 2019-04-01 12:04:28 20.7 21 22.2
003C5BC3 2019-04-01 11:31:59 20.7 22 22.3
003C5BC3 2019-04-01 10:59:31 20.7 22 22.4
003C5BC3 2019-04-01 10:27:03 20.7 22 22.4
003C5BC3 2019-04-01 09:54:33 20.6 22 22.4
003C5BC3 2019-04-01 09:22:04 20.6 22 22.5
003C5BC3 2019-04-01 08:49:34 20.6 22 22.5
003C5BC3 2019-04-01 08:17:04 20.5 23 22.6
003C5BC3 2019-04-01 07:44:35 20.6 23 22.7
003C5BC3 2019-04-01 07:12:06 20.6 23 22.7
003C5BC3 2019-04-01 06:39:37 20.6 23 22.7
003C5BC3 2019-04-01 06:07:07 20.6 23 22.7
003C5BC3 2019-04-01 05:34:38 20.6 23 22.7
003C5BC3 2019-04-01 05:02:09 20.6 23 22.6
003C5BC3 2019-04-01 04:29:40 20.6 23 22.5
003C5BC3 2019-04-01 03:57:11 20.6 23 22.7
003C5BC3 2019-04-01 03:24:42 20.6 24 22.7
003C5BC3 2019-04-01 02:52:12 20.6 24 22.8
003C5BC3 2019-04-01 02:19:43 20.6 24 22.9
003C5BC3 2019-04-01 01:47:14 20.7 24 22.9
003C5BC3 2019-04-01 01:14:45 20.7 24 22.9
003C5BC3 2019-04-01 00:41:44 20.7 24 23
003C5BC3 2019-04-01 00:09:15 20.8 25 23
003C5BC3 2019-03-31 23:36:45 20.8 25 23
003C5BC3 2019-03-31 23:04:16 20.8 25 22.9
003C5BC3 2019-03-31 22:31:47 20.9 25 22.9
003C5BC3 2019-03-31 21:59:17 20.9 26 23
003C5BC3 2019-03-31 21:26:48 20.9 26 23
003C5BC3 2019-03-31 20:54:20 20.9 27 22.9
003C5BC3 2019-03-31 20:21:51 21 27 22.9
003C5BC3 2019-03-31 19:49:21 21 27 22.9
003C5BC3 2019-03-31 19:16:52 20.9 27 22.8
003C5BC3 2019-03-31 18:44:21 20.9 28 22.8
003C5BC3 2019-03-31 18:11:52 20.8 28 22.8
003C5BC3 2019-03-31 17:39:22 20.8 28 22.8
003C5BC3 2019-03-31 17:06:51 20.7 28 22.8
003C5BC3 2019-03-31 16:34:19 20.7 28 22.8
003C5BC3 2019-03-31 16:01:49 20.7 28 22.8
003C5BC3 2019-03-31 15:29:19 20.7 28 22.9
003C5BC3 2019-03-31 14:56:49 20.7 28 22.7
003C5BC3 2019-03-31 14:24:19 20.7 28 21.7
003C5BC3 2019-03-31 13:51:49 20.7 28 21.7
003C5BC3 2019-03-31 13:19:20 20.7 28 22.8
003C5BC3 2019-03-31 12:46:50 20.7 28 22.8
003C5BC3 2019-03-31 12:14:21 20.7 28 22.7
003C5BC3 2019-03-31 11:41:52 20.7 28 22.7
003C5BC3 2019-03-31 11:09:22 20.7 28 22.7
003C5BC3 2019-03-31 10:36:54 20.7 28 22.6
003C5BC3 2019-03-31 10:04:24 20.7 28 22.6
003C5BC3 2019-03-31 09:31:54 20.7 28 22.5
003C5BC3 2019-03-31 08:59:24 20.7 28 22.6
003C5BC3 2019-03-31 08:26:53 20.7 28 22.6
003C5BC3 2019-03-31 07:54:24 20.7 28 22.5
003C5BC3 2019-03-31 07:21:55 20.7 28 22.6
003C5BC3 2019-03-31 06:49:25 20.7 28 22.5
003C5BC3 2019-03-31 06:16:55 20.7 28 22.5
003C5BC3 2019-03-31 05:44:26 20.7 28 22.6
003C5BC3 2019-03-31 05:11:56 20.7 28 22.5
003C5BC3 2019-03-31 04:39:27 20.8 28 22.6
003C5BC3 2019-03-31 04:06:57 20.7 28 22.7
003C5BC3 2019-03-31 02:34:27 20.7 28 22.8
003C5BC3 2019-03-31 02:01:58 20.7 28 22.7
003C5BC3 2019-03-31 01:29:28 20.8 28 22.6
003C5BC3 2019-03-31 00:57:00 20.8 28 22.7
003C5BC3 2019-03-31 00:24:30 20.8 27 22.8
003C5BC3 2019-03-30 23:52:00 20.8 27 22.7
003C5BC3 2019-03-30 23:19:32 20.8 27 21.8
003C5BC3 2019-03-30 22:47:01 20.9 27 21.7
003C5BC3 2019-03-30 22:14:32 20.9 27 21.7
003C5BC3 2019-03-30 21:42:01 20.9 27 21.8
003C5BC3 2019-03-30 21:09:32 20.9 27 21.8
003C5BC3 2019-03-30 20:36:30 21 27 21.9
003C5BC3 2019-03-30 20:04:01 21 27 21.9
003C5BC3 2019-03-30 19:31:32 21 27 21.9
003C5BC3 2019-03-30 18:59:02 21.1 27 22
003C5BC3 2019-03-30 18:26:32 21.1 27 21.9
003C5BC3 2019-03-30 17:54:02 21.1 27 21.9
003C5BC3 2019-03-30 17:21:32 21.1 27 21.9
003C5BC3 2019-03-30 16:49:02 21.1 27 21.8
003C5BC3 2019-03-30 16:16:32 21.1 27 21.9
003C5BC3 2019-03-30 15:44:02 21.1 27 21.7
003C5BC3 2019-03-30 15:11:32 21.1 27 21.7
003C5BC3 2019-03-30 14:39:02 21 27 21.5
003C5BC3 2019-03-30 14:06:32 21 27 21.3
003C5BC3 2019-03-30 13:34:03 20.9 27 21.4
003C5BC3 2019-03-30 13:01:33 20.9 27 21.4
003C5BC3 2019-03-30 12:29:02 20.9 27 21.4
003C5BC3 2019-03-30 11:56:32 20.9 27 21.4
003C5BC3 2019-03-30 11:24:01 20.8 27 21.4
003C5BC3 2019-03-30 10:51:31 20.8 27 21.3
003C5BC3 2019-03-30 10:19:00 20.8 27 22.2
003C5BC3 2019-03-30 09:46:30 20.8 27 22.1
003C5BC3 2019-03-30 09:14:01 20.8 27 22.2
003C5BC3 2019-03-30 08:41:32 20.8 27 22.3
003C5BC3 2019-03-30 08:09:02 20.8 27 22.2
003C5BC3 2019-03-30 07:36:33 20.7 27 22.1
003C5BC3 2019-03-30 07:04:03 20.8 27 22.1
003C5BC3 2019-03-30 06:31:33 20.8 27 22
003C5BC3 2019-03-30 05:59:04 20.8 28 21.8
003C5BC3 2019-03-30 05:26:35 20.8 28 21.9
003C5BC3 2019-03-30 04:54:06 20.8 28 21.9
003C5BC3 2019-03-30 04:21:37 20.9 28 21.9
003C5BC3 2019-03-30 03:49:08 20.9 28 21.9
003C5BC3 2019-03-30 03:16:38 20.9 28 21.8
003C5BC3 2019-03-30 02:44:10 20.9 28 21.9
003C5BC3 2019-03-30 02:11:40 20.9 28 22.1
003C5BC3 2019-03-30 01:39:10 21 28 22
003C5BC3 2019-03-30 01:06:40 21 28 22.9
003C5BC3 2019-03-30 00:34:12 21 28 22.9
003C5BC3 2019-03-30 00:01:41 21 28 23.6
003C5BC3 2019-03-29 23:29:11 21.1 28 23.6
003C5BC3 2019-03-29 22:56:41 21.1 28 23.5
003C5BC3 2019-03-29 22:24:10 21.1 28 23.5
003C5BC3 2019-03-29 21:51:40 21.1 29 23.4
003C5BC3 2019-03-29 21:19:09 21.2 29 23.4
003C5BC3 2019-03-29 20:46:39 21.1 29 22.7
003C5BC3 2019-03-29 20:14:10 21.1 29 22.8
003C5BC3 2019-03-29 19:41:40 21.1 28 22.7
003C5BC3 2019-03-29 19:09:11 21.1 28 22.6
003C5BC3 2019-03-29 18:36:42 21.2 29 22.5
003C5BC3 2019-03-29 18:04:11 21.2 28 22.5
003C5BC3 2019-03-29 17:31:08 21.2 28 22.6
003C5BC3 2019-03-29 16:58:38 21.3 28 22.7
003C5BC3 2019-03-29 16:26:07 21.3 28 22.5
003C5BC3 2019-03-29 15:53:36 21.3 28 22.7
003C5BC3 2019-03-29 15:21:06 21.3 28 22.7
003C5BC3 2019-03-29 14:48:36 21.3 28 22.8
003C5BC3 2019-03-29 14:16:06 21.3 28 22.7
003C5BC3 2019-03-29 13:43:36 21.2 28 22.6
003C5BC3 2019-03-29 13:11:05 21.2 28 22.5
003C5BC3 2019-03-29 12:38:35 21.1 27 22.5
003C5BC3 2019-03-29 12:06:07 21.1 27 21.6
003C5BC3 2019-03-29 11:33:34 21.1 27 21.7
003C5BC3 2019-03-29 11:01:04 21.2 27 20.6
003C5BC3 2019-03-29 10:28:35 21.1 27 20.8
003C5BC3 2019-03-29 09:56:06 21 27 20.7
003C5BC3 2019-03-29 09:23:36 21 26 20.8
003C5BC3 2019-03-29 08:51:07 20.9 26 20.9
003C5BC3 2019-03-29 08:18:38 20.9 26 20.6
003C5BC3 2019-03-29 07:46:08 20.9 25 20.8
003C5BC3 2019-03-29 07:13:37 20.8 25 20.9
003C5BC3 2019-03-29 06:41:07 20.8 25 20.8
003C5BC3 2019-03-29 06:08:36 20.9 25 21.1
003C5BC3 2019-03-29 05:36:06 20.9 25 21
003C5BC3 2019-03-29 05:03:36 20.9 25 21
003C5BC3 2019-03-29 04:31:08 21 25 21
003C5BC3 2019-03-29 03:58:36 21 25 20.9
003C5BC3 2019-03-29 03:26:05 21.1 25 20.9
003C5BC3 2019-03-29 02:53:35 21.1 25 20.6
003C5BC3 2019-03-29 02:21:05 21.2 25 20.4
003C5BC3 2019-03-29 01:48:37 21.2 25 20.2
003C5BC3 2019-03-29 01:16:07 21.2 25 20.3
003C5BC3 2019-03-29 00:43:37 21.2 25 20.4
003C5BC3 2019-03-29 00:11:07 21.2 25 20.4
003C5BC3 2019-03-28 23:38:36 21.2 25 20.6
003C5BC3 2019-03-28 23:06:06 21.2 25 20.7
003C5BC3 2019-03-28 22:33:36 21.2 25 20.5
003C5BC3 2019-03-28 22:01:05 21.3 25 20.4
003C5BC3 2019-03-28 21:28:34 21.3 25 20.3
003C5BC3 2019-03-28 20:56:03 21.3 24 20.3
003C5BC3 2019-03-28 20:23:33 21.3 24 20.6
003C5BC3 2019-03-28 19:51:02 21.3 24 20.7
003C5BC3 2019-03-28 19:18:32 21.3 24 20.7
003C5BC3 2019-03-28 18:46:02 21.3 24 20.8
003C5BC3 2019-03-28 18:13:33 21.3 24 20.7
003C5BC3 2019-03-28 17:41:03 21.4 24 20.9
003C5BC3 2019-03-28 17:08:33 21.4 24 20.8
003C5BC3 2019-03-28 16:36:04 21.3 24 20.5
003C5BC3 2019-03-28 16:03:34 21.3 24 20.8
003C5BC3 2019-03-28 15:31:05 21.3 23 21.2
003C5BC3 2019-03-28 14:58:34 21.3 23 21
003C5BC3 2019-03-28 14:25:27 21.2 23 21.3
003C5BC3 2019-03-28 13:52:57 21.2 23 21.5
003C5BC3 2019-03-28 13:20:28 21.1 23 21.6
003C5BC3 2019-03-28 12:47:57 21 22 21.8
003C5BC3 2019-03-28 12:15:27 21.1 22 21.8
003C5BC3 2019-03-28 11:42:58 21 22 21.6
003C5BC3 2019-03-28 11:10:29 21 21 21.7
003C5BC3 2019-03-28 10:37:59 21 21 21.6
003C5BC3 2019-03-28 10:05:30 21 21 21.6
003C5BC3 2019-03-28 09:33:00 20.9 20 21.6
003C5BC3 2019-03-28 09:00:32 20.9 20 21.8
003C5BC3 2019-03-28 08:28:02 20.9 20 21.8
003C5BC3 2019-03-28 07:55:32 20.9 20 21.7
003C5BC3 2019-03-28 07:23:04 20.8 20 21.5
003C5BC3 2019-03-28 06:50:34 20.8 19 21.5
003C5BC3 2019-03-28 06:18:06 20.8 19 21.3
003C5BC3 2019-03-28 05:45:36 20.8 19 21.3
003C5BC3 2019-03-28 05:13:06 20.8 19 21.2
003C5BC3 2019-03-28 04:40:37 20.8 19 20.9
003C5BC3 2019-03-28 04:08:08 20.9 19 21.1
003C5BC3 2019-03-28 03:35:38 20.9 19 21
003C5BC3 2019-03-28 03:03:09 20.9 19 21.1
003C5BC3 2019-03-28 02:30:39 20.9 18 20.8
003C5BC3 2019-03-28 01:58:09 20.9 18 21.9
003C5BC3 2019-03-28 01:25:41 20.9 18 22.7
003C5BC3 2019-03-28 00:53:12 21 18 23.5
003C5BC3 2019-03-28 00:20:43 21 18 23.4
003C5BC3 2019-03-27 23:48:13 21 17 24.1
003C5BC3 2019-03-27 23:15:44 21.1 17 23.9
003C5BC3 2019-03-27 22:43:14 21.1 17 23.9
003C5BC3 2019-03-27 22:10:45 21.1 17 24
003C5BC3 2019-03-27 21:38:14 21.1 16 24
003C5BC3 2019-03-27 21:05:46 21.1 16 24
003C5BC3 2019-03-27 20:33:17 21.2 16 23.9
003C5BC3 2019-03-27 20:00:46 21.2 16 23.9
003C5BC3 2019-03-27 19:28:17 21.2 16 23.9
003C5BC3 2019-03-27 18:55:47 21.3 15 23.9
003C5BC3 2019-03-27 18:23:17 21.3 15 23.9
003C5BC3 2019-03-27 17:50:47 21.4 16 24
003C5BC3 2019-03-27 17:18:18 21.4 16 23.9
003C5BC3 2019-03-27 16:45:48 21.5 16 24
003C5BC3 2019-03-27 16:13:19 21.5 16 24
003C5BC3 2019-03-27 15:40:51 21.5 16 24
003C5BC3 2019-03-27 15:08:21 21.4 16 24
003C5BC3 2019-03-27 14:35:52 21.2 16 24
003C5BC3 2019-03-27 14:03:26 21.1 16 24
003C5BC3 2019-03-27 13:30:55 21.1 16 24
003C5BC3 2019-03-27 12:58:26 21 16 24
003C5BC3 2019-03-27 12:25:57 20.9 15 23.3
003C5BC3 2019-03-27 11:53:29 20.9 15 22.6
003C5BC3 2019-03-27 11:20:27 20.9 15 21.7
003C5BC3 2019-03-27 10:47:57 20.8 15 20.5
003C5BC3 2019-03-27 10:15:28 20.8 15 20.5
003C5BC3 2019-03-27 09:42:57 20.8 15 20.5
003C5BC3 2019-03-27 09:10:28 20.7 15 20.3
003C5BC3 2019-03-27 08:37:57 20.7 14 20.4
003C5BC3 2019-03-27 08:05:28 20.7 14 20.6
003C5BC3 2019-03-27 07:32:59 20.7 14 20.5
003C5BC3 2019-03-27 07:00:29 20.7 14 20.5
003C5BC3 2019-03-27 06:28:00 20.7 14 20.6
003C5BC3 2019-03-27 05:55:31 20.7 14 20.4
003C5BC3 2019-03-27 05:23:02 20.7 14 20.4
003C5BC3 2019-03-27 04:50:32 20.8 14 20.3
003C5BC3 2019-03-27 04:18:02 20.8 14 20.5
003C5BC3 2019-03-27 03:45:33 20.8 14 20.4
003C5BC3 2019-03-27 03:13:03 20.8 14 20.6
003C5BC3 2019-03-27 02:40:34 20.8 14 20.6
003C5BC3 2019-03-27 02:08:04 20.8 14 20.5
003C5BC3 2019-03-27 01:35:34 20.9 14 20.4
003C5BC3 2019-03-27 01:03:04 20.9 14 20.4
003C5BC3 2019-03-27 00:30:35 21 14 20.2
003C5BC3 2019-03-26 23:58:07 21 14 20.2
003C5BC3 2019-03-26 23:25:36 21.1 14 20.2
003C5BC3 2019-03-26 22:53:07 21.1 14 20
003C5BC3 2019-03-26 22:20:37 21.1 14 20.1
003C5BC3 2019-03-26 21:48:09 21.2 14 20
003C5BC3 2019-03-26 21:15:37 21.2 14 20.2
003C5BC3 2019-03-26 20:43:08 21.3 14 21.4
003C5BC3 2019-03-26 20:10:38 21.3 13 21.4
003C5BC3 2019-03-26 19:38:08 21.3 13 21.4
003C5BC3 2019-03-26 19:05:37 21.3 13 21.2
003C5BC3 2019-03-26 18:33:08 21.4 13 21.2
003C5BC3 2019-03-26 18:00:38 21.5 13 21.2
003C5BC3 2019-03-26 17:28:08 21.5 14 21.2
003C5BC3 2019-03-26 16:55:38 21.5 14 20.9
003C5BC3 2019-03-26 16:23:09 21.5 14 21
003C5BC3 2019-03-26 15:50:39 21.5 14 20.9
003C5BC3 2019-03-26 15:18:08 21.3 14 20.8
003C5BC3 2019-03-26 14:45:39 21.2 15 20.6
003C5BC3 2019-03-26 14:13:09 21.1 15 20.6
003C5BC3 2019-03-26 13:40:39 20.9 15 20.4
003C5BC3 2019-03-26 13:08:10 20.8 16 20.5
003C5BC3 2019-03-26 12:35:39 20.7 16 20.5
003C5BC3 2019-03-26 12:03:09 20.7 16 20.5
003C5BC3 2019-03-26 11:30:39 20.7 16 20.5
003C5BC3 2019-03-26 10:58:09 20.7 17 20.4
003C5BC3 2019-03-26 10:25:39 20.7 17 20.4
003C5BC3 2019-03-26 09:53:11 20.7 18 20.3
003C5BC3 2019-03-26 09:20:39 20.7 18 20.4
003C5BC3 2019-03-26 08:48:09 20.7 19 20.4
003C5BC3 2019-03-26 08:15:03 20.7 19 20
003C5BC3 2019-03-26 07:42:33 20.7 20 18.3
003C5BC3 2019-03-26 07:10:04 20.7 20 18.4
003C5BC3 2019-03-26 06:37:34 20.7 20 18.3
003C5BC3 2019-03-26 06:05:04 20.7 20 18.4
003C5BC3 2019-03-26 05:32:34 20.7 20 18.1
003C5BC3 2019-03-26 05:00:04 20.7 20 18.1
003C5BC3 2019-03-26 04:27:35 20.7 20 18
003C5BC3 2019-03-26 03:55:05 20.7 20 18.1
003C5BC3 2019-03-26 03:22:36 20.7 20 18.1
003C5BC3 2019-03-26 02:50:07 20.7 20 18.2
003C5BC3 2019-03-26 02:17:37 20.7 20 18.3
003C5BC3 2019-03-26 01:45:06 20.7 20 18.5
003C5BC3 2019-03-26 01:12:37 20.7 20 18.2
003C5BC3 2019-03-26 00:40:08 20.8 20 18.4
003C5BC3 2019-03-26 00:07:39 20.8 20 18.2
003C5BC3 2019-03-25 23:35:10 20.8 20 18.6
003C5BC3 2019-03-25 23:02:41 20.9 20 18.9
003C5BC3 2019-03-25 22:30:11 20.9 20 19
003C5BC3 2019-03-25 21:57:41 20.9 20 19.2
003C5BC3 2019-03-25 21:25:11 21 20 19.4
003C5BC3 2019-03-25 20:52:41 21 20 19.7
003C5BC3 2019-03-25 20:20:12 21 20 19.8
003C5BC3 2019-03-25 19:47:41 21 20 19.9
003C5BC3 2019-03-25 19:15:12 21 20 19.9
003C5BC3 2019-03-25 18:42:42 21 20 20
003C5BC3 2019-03-25 18:10:12 21.1 20 20
003C5BC3 2019-03-25 17:37:42 21.1 21 20.1
003C5BC3 2019-03-25 17:05:13 21.2 22 20.3
003C5BC3 2019-03-25 16:32:44 21.2 23 20.5
003C5BC3 2019-03-25 16:00:14 21.2 23 20.7
003C5BC3 2019-03-25 15:27:44 21.1 24 20.8
003C5BC3 2019-03-25 14:55:15 21.1 24 20.9
003C5BC3 2019-03-25 14:22:45 21.2 24 21
003C5BC3 2019-03-25 13:50:15 21.2 24 20.9
003C5BC3 2019-03-25 13:17:45 21 24 21.2
003C5BC3 2019-03-25 12:45:15 20.9 24 21.3
003C5BC3 2019-03-25 12:12:44 20.9 23 21.3
003C5BC3 2019-03-25 11:40:13 20.8 24 22.4
003C5BC3 2019-03-25 11:07:43 20.8 24 22.4
003C5BC3 2019-03-25 10:35:12 20.7 24 22.5
003C5BC3 2019-03-25 10:02:41 20.5 24 22.5
003C5BC3 2019-03-25 09:30:11 20.4 23 22.4
003C5BC3 2019-03-25 08:57:38 20.3 23 22.3
003C5BC3 2019-03-25 08:25:07 20.3 23 22.4
003C5BC3 2019-03-25 07:52:36 20.3 23 22.4
003C5BC3 2019-03-25 07:20:05 20.4 23 22.3
003C5BC3 2019-03-25 06:47:35 20.3 23 22.4
003C5BC3 2019-03-25 06:15:04 20.3 23 22.4
003C5BC3 2019-03-25 05:42:32 20.4 23 22.4
003C5BC3 2019-03-25 05:09:29 20.3 23 23.2
003C5BC3 2019-03-25 04:36:59 20.4 23 23.1
003C5BC3 2019-03-25 04:04:31 20.4 23 23.1
003C5BC3 2019-03-25 03:32:00 20.4 23 23.1
003C5BC3 2019-03-25 02:59:30 20.4 23 23.1
003C5BC3 2019-03-25 02:27:01 20.5 23 23.1
003C5BC3 2019-03-25 01:54:30 20.5 23 23
003C5BC3 2019-03-25 01:22:00 20.5 23 23.1
003C5BC3 2019-03-25 00:49:31 20.6 23 23
003C5BC3 2019-03-25 00:17:02 20.6 23 23
003C5BC3 2019-03-24 23:44:31 20.7 23 23
003C5BC3 2019-03-24 23:12:02 20.7 23 23
003C5BC3 2019-03-24 22:39:32 20.8 23 22.1
003C5BC3 2019-03-24 22:07:01 20.8 23 22.1
003C5BC3 2019-03-24 21:34:30 20.9 23 22.2
003C5BC3 2019-03-24 21:02:01 20.9 23 22.1
003C5BC3 2019-03-24 20:29:31 20.9 23 23.1
003C5BC3 2019-03-24 19:57:02 21 23 23.1
003C5BC3 2019-03-24 19:24:32 21 23 23.1
003C5BC3 2019-03-24 18:52:03 21.1 23 23.1
003C5BC3 2019-03-24 18:19:33 21.1 23 23.1
003C5BC3 2019-03-24 17:47:03 21.1 23 23.1
003C5BC3 2019-03-24 17:14:33 21.1 24 23.2
003C5BC3 2019-03-24 16:42:04 21 24 23.2
003C5BC3 2019-03-24 16:09:35 20.9 24 23.2
003C5BC3 2019-03-24 15:37:05 20.8 24 22.4
003C5BC3 2019-03-24 15:04:37 20.6 24 22.5
003C5BC3 2019-03-24 14:32:08 20.4 24 22.5
003C5BC3 2019-03-24 13:59:37 20.4 24 22.5
003C5BC3 2019-03-24 13:27:07 20.4 24 22.4
003C5BC3 2019-03-24 12:54:38 20.3 24 22.4
003C5BC3 2019-03-24 12:22:08 20.3 24 22.5
003C5BC3 2019-03-24 11:49:38 20.3 24 22.5
003C5BC3 2019-03-24 11:17:08 20.3 24 22.6
003C5BC3 2019-03-24 10:44:38 20.3 24 22.6
003C5BC3 2019-03-24 10:12:10 20.3 24 22.5
003C5BC3 2019-03-24 09:39:40 20.3 24 22.6
003C5BC3 2019-03-24 09:07:10 20.3 24 22.5
003C5BC3 2019-03-24 08:34:40 20.3 24 22.6
003C5BC3 2019-03-24 08:02:11 20.3 24 22.5
003C5BC3 2019-03-24 07:29:42 20.3 24 22.5
003C5BC3 2019-03-24 06:57:12 20.3 23 21.6
003C5BC3 2019-03-24 06:24:43 20.3 23 21.6
003C5BC3 2019-03-24 05:52:12 20.3 23 21.6
003C5BC3 2019-03-24 05:19:43 20.3 23 21.6
003C5BC3 2019-03-24 04:47:14 20.3 23 21.5
003C5BC3 2019-03-24 04:14:44 20.3 23 21.6
003C5BC3 2019-03-24 03:42:15 20.3 23 21.5
003C5BC3 2019-03-24 03:09:46 20.4 23 21.4
003C5BC3 2019-03-24 02:37:18 20.3 23 21.4
003C5BC3 2019-03-24 02:04:17 20.3 23 21.2
003C5BC3 2019-03-24 01:31:48 20.3 23 21.1
003C5BC3 2019-03-24 00:59:20 20.4 23 21
003C5BC3 2019-03-24 00:26:51 20.4 23 21
003C5BC3 2019-03-23 23:54:22 20.4 23 20.9
003C5BC3 2019-03-23 23:21:55 20.4 23 20.9
003C5BC3 2019-03-23 22:49:26 20.4 23 20.8
003C5BC3 2019-03-23 22:16:57 20.4 22 20.8
003C5BC3 2019-03-23 21:44:30 20.4 22 20.6
003C5BC3 2019-03-23 21:12:02 20.4 22 20.6
003C5BC3 2019-03-23 20:39:35 20.4 22 20.4
003C5BC3 2019-03-23 20:07:06 20.4 22 20.4
003C5BC3 2019-03-23 19:34:38 20.5 22 20.3
003C5BC3 2019-03-23 19:02:10 20.4 22 20.2
003C5BC3 2019-03-23 18:29:41 20.5 22 20.1
003C5BC3 2019-03-23 17:57:13 20.4 22 20
003C5BC3 2019-03-23 17:24:44 20.4 22 19.8
003C5BC3 2019-03-23 16:52:15 20.5 21 19.8
003C5BC3 2019-03-23 16:19:46 20.5 21 19.7
003C5BC3 2019-03-23 15:47:17 20.5 21 19.6
003C5BC3 2019-03-23 15:14:48 20.4 21 19.5
003C5BC3 2019-03-23 14:42:19 20.5 21 19.5
003C5BC3 2019-03-23 14:09:50 20.5 21 19.7
003C5BC3 2019-03-23 13:37:22 20.5 21 19.8
003C5BC3 2019-03-23 13:04:53 20.5 21 19.9
003C5BC3 2019-03-23 12:32:24 20.5 21 20.1
003C5BC3 2019-03-23 11:59:54 20.5 21 20.1
003C5BC3 2019-03-23 11:27:25 20.5 21 20.3
003C5BC3 2019-03-23 10:54:57 20.5 20 20.2
003C5BC3 2019-03-23 10:22:29 20.5 20 20.3
003C5BC3 2019-03-23 09:50:00 20.5 20 20.4
003C5BC3 2019-03-23 09:17:31 20.5 20 20.4
003C5BC3 2019-03-23 08:45:03 20.5 20 20.3
003C5BC3 2019-03-23 08:12:35 20.5 20 20.5
003C5BC3 2019-03-23 07:40:06 20.5 20 20.6
003C5BC3 2019-03-23 07:07:38 20.6 20 20.7
003C5BC3 2019-03-23 06:35:09 20.5 20 20.7
003C5BC3 2019-03-23 06:02:41 20.6 20 20.7
003C5BC3 2019-03-23 05:30:12 20.6 20 20.8
003C5BC3 2019-03-23 04:57:42 20.6 19 20.9
003C5BC3 2019-03-23 04:25:14 20.6 19 20.9
003C5BC3 2019-03-23 03:52:44 20.7 19 20.9
003C5BC3 2019-03-23 03:20:15 20.7 19 20.8
003C5BC3 2019-03-23 02:47:46 20.8 19 20.6
003C5BC3 2019-03-23 02:15:16 20.8 19 20.8
003C5BC3 2019-03-23 01:42:46 20.9 19 20.7
003C5BC3 2019-03-23 01:10:16 20.9 19 20.7
003C5BC3 2019-03-23 00:37:47 21 18 20.6
003C5BC3 2019-03-23 00:05:18 21.1 18 20.3
003C5BC3 2019-03-22 23:32:49 21.4 18 20.2
003C5BC3 2019-03-22 23:31:32 21.1 18 20.1
003C5BC3 2019-03-22 22:59:04 21.2 18 20
003C5BC3 2019-03-22 22:26:35 21.3 18 19.9
003C5BC3 2019-03-22 21:54:06 21.3 18 19.8
003C5BC3 2019-03-22 21:21:37 21.4 18 19.8
003C5BC3 2019-03-22 20:49:08 21.4 17 19.8
003C5BC3 2019-03-22 20:16:43 21.4 17 19.8
003C5BC3 2019-03-22 19:44:10 21.4 17 19.8
003C5BC3 2019-03-22 19:11:42 21.4 17 19.6
003C5BC3 2019-03-22 18:39:12 21.4 17 19.5
003C5BC3 2019-03-22 18:06:42 21.4 16 19.5
003C5BC3 2019-03-22 17:34:12 21.4 16 19.7
003C5BC3 2019-03-22 17:01:44 21.4 16 19.6
003C5BC3 2019-03-22 16:29:11 21.3 16 19.6
003C5BC3 2019-03-22 15:56:41 21.2 16 19.8
003C5BC3 2019-03-22 15:24:11 21.1 17 19.8
003C5BC3 2019-03-22 14:51:41 20.9 17 20
003C5BC3 2019-03-22 14:19:12 20.8 18 20.2
003C5BC3 2019-03-22 13:46:44 20.8 19 20.4
003C5BC3 2019-03-22 13:14:14 20.8 19 20.4
003C5BC3 2019-03-22 12:41:44 20.8 20 20.5
003C5BC3 2019-03-22 12:09:15 20.8 20 20.5
003C5BC3 2019-03-22 11:36:47 20.8 20 20.6
003C5BC3 2019-03-22 11:04:19 20.7 21 20.7
003C5BC3 2019-03-22 10:31:51 20.7 21 20.9
003C5BC3 2019-03-22 09:59:22 20.7 22 20.9
003C5BC3 2019-03-22 09:26:54 20.7 22 22.1
003C5BC3 2019-03-22 08:54:25 20.7 23 22.2
003C5BC3 2019-03-22 08:21:56 20.7 23 22.4
003C5BC3 2019-03-22 07:49:28 20.7 24 22.4
003C5BC3 2019-03-22 07:16:59 20.7 24 22.3
003C5BC3 2019-03-22 06:44:31 20.7 24 22.4
003C5BC3 2019-03-22 06:12:02 20.7 25 22.4
003C5BC3 2019-03-22 05:39:34 20.7 25 22.4
003C5BC3 2019-03-22 05:07:06 20.7 25 22.4
003C5BC3 2019-03-22 04:34:38 20.7 26 22.4
003C5BC3 2019-03-22 04:02:10 20.7 26 22.2
003C5BC3 2019-03-22 03:29:41 20.8 26 22.3
003C5BC3 2019-03-22 02:57:13 20.8 27 22.3
003C5BC3 2019-03-22 02:24:45 20.8 27 22.2
003C5BC3 2019-03-22 01:52:16 20.8 27 22.2
003C5BC3 2019-03-22 01:19:48 20.8 28 22.2
003C5BC3 2019-03-22 00:47:19 20.9 28 22.2
003C5BC3 2019-03-22 00:14:49 20.8 28 23
003C5BC3 2019-03-21 23:42:20 20.9 28 23
003C5BC3 2019-03-21 23:09:51 20.9 28 23
003C5BC3 2019-03-21 22:37:22 20.9 28 23
003C5BC3 2019-03-21 22:04:54 21 28 23
003C5BC3 2019-03-21 21:32:25 21 28 22.9
003C5BC3 2019-03-21 20:59:57 21 28 22.9
003C5BC3 2019-03-21 20:26:55 21 28 22.9
003C5BC3 2019-03-21 19:54:27 21 28 22.8
003C5BC3 2019-03-21 19:21:59 21.1 28 22.6
003C5BC3 2019-03-21 18:49:31 21.2 28 22.7
003C5BC3 2019-03-21 18:17:03 21.2 28 22.8
003C5BC3 2019-03-21 17:44:34 21.3 28 22.8
003C5BC3 2019-03-21 17:12:04 21.3 27 22.9
003C5BC3 2019-03-21 16:39:35 21.4 27 23
003C5BC3 2019-03-21 16:07:06 21.4 28 23
003C5BC3 2019-03-21 15:34:37 21.5 28 23.1
003C5BC3 2019-03-21 15:02:09 21.4 28 23.2
003C5BC3 2019-03-21 14:29:39 21.3 27 23.1
003C5BC3 2019-03-21 13:57:10 21.2 27 23.1
003C5BC3 2019-03-21 13:24:42 21.1 26 23.1
003C5BC3 2019-03-21 12:52:14 21 26 23.1
003C5BC3 2019-03-21 12:19:44 20.9 26 23
003C5BC3 2019-03-21 11:47:15 20.9 25 23
003C5BC3 2019-03-21 11:14:46 20.9 25 22.2
003C5BC3 2019-03-21 10:42:17 20.8 25 22.2
003C5BC3 2019-03-21 10:09:48 20.7 25 22.2
003C5BC3 2019-03-21 09:37:20 20.7 25 22.4
003C5BC3 2019-03-21 09:04:52 20.6 25 22.4
003C5BC3 2019-03-21 08:32:25 20.6 25 22.4
003C5BC3 2019-03-21 07:59:55 20.6 25 22.3
003C5BC3 2019-03-21 07:27:27 20.6 25 22.4
003C5BC3 2019-03-21 06:54:57 20.7 25 21.4
003C5BC3 2019-03-21 06:22:28 20.7 25 22.4
003C5BC3 2019-03-21 05:49:59 20.7 25 22.5
003C5BC3 2019-03-21 05:17:32 20.6 25 22.4
003C5BC3 2019-03-21 04:45:02 20.7 25 22.4
003C5BC3 2019-03-21 04:12:32 20.6 26 22.2
003C5BC3 2019-03-21 03:40:03 20.7 26 22.1
003C5BC3 2019-03-21 03:07:34 20.7 26 22
003C5BC3 2019-03-21 02:35:05 20.7 26 22
003C5BC3 2019-03-21 02:02:37 20.7 26 21.9
003C5BC3 2019-03-21 01:30:08 20.7 26 21.8
003C5BC3 2019-03-21 00:57:39 20.7 26 21.8
003C5BC3 2019-03-21 00:25:10 20.7 26 21.9
003C5BC3 2019-03-20 23:52:41 20.7 26 21.9
003C5BC3 2019-03-20 23:20:12 20.7 26 22
003C5BC3 2019-03-20 22:47:42 20.7 26 21.9
003C5BC3 2019-03-20 22:15:13 20.8 26 21.9
003C5BC3 2019-03-20 21:42:44 20.8 26 21.8
003C5BC3 2019-03-20 21:10:15 20.8 26 21.8
003C5BC3 2019-03-20 20:37:45 20.8 26 21.7
003C5BC3 2019-03-20 20:05:15 20.8 26 21.5
003C5BC3 2019-03-20 19:32:46 20.9 26 21.4
003C5BC3 2019-03-20 19:00:15 20.9 26 21.4
003C5BC3 2019-03-20 18:27:46 21 26 21.3
003C5BC3 2019-03-20 17:55:17 21 26 21.3
003C5BC3 2019-03-20 17:22:15 21.1 26 20.1
003C5BC3 2019-03-20 16:49:45 21.1 26 20
003C5BC3 2019-03-20 16:17:16 21.2 26 20
003C5BC3 2019-03-20 15:44:48 21.2 26 20.1
003C5BC3 2019-03-20 15:12:18 21.2 26 20.3
003C5BC3 2019-03-20 14:39:47 21.1 25 20.2
003C5BC3 2019-03-20 14:07:18 21.1 25 20.2
003C5BC3 2019-03-20 13:34:47 21.1 25 20.3
003C5BC3 2019-03-20 13:02:18 21 25 20.8
003C5BC3 2019-03-20 12:29:48 21 25 20.7
003C5BC3 2019-03-20 11:57:19 21 25 20.6
003C5BC3 2019-03-20 11:24:49 20.9 25 20.7
003C5BC3 2019-03-20 10:52:20 20.8 25 20.8
003C5BC3 2019-03-20 10:19:51 20.7 25 20.8
003C5BC3 2019-03-20 09:47:21 20.6 25 20.8
003C5BC3 2019-03-20 09:14:51 20.6 25 20.7
003C5BC3 2019-03-20 08:42:22 20.6 25 21.9
003C5BC3 2019-03-20 08:09:53 20.5 26 21.9
003C5BC3 2019-03-20 07:37:23 20.6 26 21.9
003C5BC3 2019-03-20 07:04:53 20.6 26 21.9
003C5BC3 2019-03-20 06:32:24 20.6 27 21.8
003C5BC3 2019-03-20 05:59:55 20.6 27 22
003C5BC3 2019-03-20 05:27:25 20.6 27 22
003C5BC3 2019-03-20 04:54:55 20.6 27 21.9
003C5BC3 2019-03-20 04:22:25 20.6 27 21.8
003C5BC3 2019-03-20 03:49:57 20.6 27 21.8
003C5BC3 2019-03-20 03:17:28 20.6 27 21.7
003C5BC3 2019-03-20 02:44:59 20.6 28 21.6
003C5BC3 2019-03-20 02:12:29 20.7 28 21.5
003C5BC3 2019-03-20 01:40:00 20.7 28 21.5
003C5BC3 2019-03-20 01:07:31 20.7 28 21.5
003C5BC3 2019-03-20 00:34:59 20.7 28 21.4
003C5BC3 2019-03-20 00:02:30 20.7 28 21.2
003C5BC3 2019-03-19 23:30:01 20.8 28 21.1
003C5BC3 2019-03-19 22:57:31 20.8 28 21.1
003C5BC3 2019-03-19 22:25:01 20.8 29 21
003C5BC3 2019-03-19 21:52:32 20.8 29 21
003C5BC3 2019-03-19 21:20:02 20.9 29 21
003C5BC3 2019-03-19 20:47:33 20.9 29 20.9
003C5BC3 2019-03-19 20:15:05 20.9 29 20.9
003C5BC3 2019-03-19 19:42:35 21 29 20.9
003C5BC3 2019-03-19 19:10:09 21.1 29 19.4
003C5BC3 2019-03-19 18:37:37 21.1 29 19.4
003C5BC3 2019-03-19 18:05:07 21.3 29 19.7
003C5BC3 2019-03-19 17:32:38 21.3 30 19.7
003C5BC3 2019-03-19 17:00:08 21.3 30 19.9
003C5BC3 2019-03-19 16:27:39 21.3 30 19.7
003C5BC3 2019-03-19 15:55:09 21.2 30 19.7
003C5BC3 2019-03-19 15:22:42 21.2 29 20
003C5BC3 2019-03-19 14:50:13 21.3 29 20.1
003C5BC3 2019-03-19 14:17:11 21.3 30 20.5
003C5BC3 2019-03-19 13:44:41 21.2 29 20.6
003C5BC3 2019-03-19 13:12:11 21.2 29 20.7
003C5BC3 2019-03-19 12:39:42 21.1 30 20.9
003C5BC3 2019-03-19 12:07:12 21.1 30 20.8
003C5BC3 2019-03-19 11:34:43 21 29 20.9
003C5BC3 2019-03-19 11:02:13 20.9 29 20.9
003C5BC3 2019-03-19 10:29:43 20.8 29 20.8
003C5BC3 2019-03-19 09:57:14 20.7 28 21.1
003C5BC3 2019-03-19 09:24:44 20.7 28 21.2
003C5BC3 2019-03-19 08:52:15 20.6 27 21.1
003C5BC3 2019-03-19 08:19:46 20.6 27 21.1
003C5BC3 2019-03-19 07:47:16 20.6 27 21.2
003C5BC3 2019-03-19 07:14:48 20.6 27 21.2
003C5BC3 2019-03-19 06:42:19 20.6 27 21.1
003C5BC3 2019-03-19 06:09:50 20.6 27 21
003C5BC3 2019-03-19 05:37:21 20.6 27 20.9
003C5BC3 2019-03-19 05:04:53 20.6 27 20.7
003C5BC3 2019-03-19 04:32:23 20.6 27 20.7
003C5BC3 2019-03-19 03:59:52 20.6 27 20.4
003C5BC3 2019-03-19 03:27:22 20.6 27 20.4
003C5BC3 2019-03-19 02:54:53 20.6 27 20.2
003C5BC3 2019-03-19 02:22:24 20.6 27 20.1
003C5BC3 2019-03-19 01:49:57 20.7 27 19.9
003C5BC3 2019-03-19 01:17:26 20.6 27 19.7
003C5BC3 2019-03-19 00:44:58 20.6 27 19.6
003C5BC3 2019-03-19 00:12:30 20.7 27 19.4
003C5BC3 2019-03-18 23:40:01 20.7 27 19.5
003C5BC3 2019-03-18 23:07:33 20.7 27 19.5
003C5BC3 2019-03-18 22:35:04 20.7 27 19.5
003C5BC3 2019-03-18 22:02:35 20.7 27 19.3
003C5BC3 2019-03-18 21:30:05 20.7 27 19.3
003C5BC3 2019-03-18 20:57:36 20.8 27 19.4
003C5BC3 2019-03-18 20:25:07 20.8 27 19.2
003C5BC3 2019-03-18 19:52:36 20.8 27 19.4
003C5BC3 2019-03-18 19:20:08 20.8 27 19.4
003C5BC3 2019-03-18 18:47:38 20.8 27 19.5
003C5BC3 2019-03-18 18:15:09 20.9 27 19.3
003C5BC3 2019-03-18 17:42:41 21 27 19.5
003C5BC3 2019-03-18 17:10:11 21 27 19.7
003C5BC3 2019-03-18 16:37:44 21 27 19.7
003C5BC3 2019-03-18 16:05:13 21 28 19.7
003C5BC3 2019-03-18 15:32:45 20.9 27 20
003C5BC3 2019-03-18 15:00:16 20.9 27 20.2
003C5BC3 2019-03-18 14:27:47 20.9 27 20.4
003C5BC3 2019-03-18 13:55:18 20.8 27 20.5
003C5BC3 2019-03-18 13:22:50 20.8 27 20.5
003C5BC3 2019-03-18 12:50:21 20.8 27 20.5
003C5BC3 2019-03-18 12:17:52 20.8 27 20.5
003C5BC3 2019-03-18 11:45:23 20.8 27 20.5
003C5BC3 2019-03-18 11:12:19 20.7 27 20.7
003C5BC3 2019-03-18 10:39:50 20.7 27 20.5
003C5BC3 2019-03-18 10:07:22 20.7 27 20.3
003C5BC3 2019-03-18 09:34:53 20.7 27 20.5
003C5BC3 2019-03-18 09:02:23 20.7 27 20.4
003C5BC3 2019-03-18 08:29:55 20.6 27 20.4
003C5BC3 2019-03-18 07:57:26 20.6 27 20.3
003C5BC3 2019-03-18 07:24:57 20.6 27 20.3
003C5BC3 2019-03-18 06:52:28 20.6 27 20.1
003C5BC3 2019-03-18 06:20:00 20.6 27 20.1
003C5BC3 2019-03-18 05:47:32 20.6 27 20
003C5BC3 2019-03-18 05:15:02 20.6 27 20
003C5BC3 2019-03-18 04:42:35 20.6 27 19.9
003C5BC3 2019-03-18 04:10:07 20.6 27 19.6
003C5BC3 2019-03-18 03:37:38 20.6 27 19.8
003C5BC3 2019-03-18 03:05:09 20.6 27 19.9
003C5BC3 2019-03-18 02:32:40 20.6 27 19.8
003C5BC3 2019-03-18 02:00:10 20.6 27 19.5
003C5BC3 2019-03-18 01:27:41 20.6 26 19.5
003C5BC3 2019-03-18 00:55:12 20.6 26 19.5
003C5BC3 2019-03-18 00:22:42 20.6 26 19.6
003C5BC3 2019-03-17 23:50:12 20.6 26 19.8
003C5BC3 2019-03-17 23:17:44 20.6 26 20
003C5BC3 2019-03-17 22:45:15 20.6 26 20.1
003C5BC3 2019-03-17 22:12:44 20.6 26 20.3
003C5BC3 2019-03-17 21:40:15 20.6 26 20.1
003C5BC3 2019-03-17 21:07:45 20.6 26 20.3
003C5BC3 2019-03-17 20:35:15 20.6 26 20.2
003C5BC3 2019-03-17 20:02:45 20.6 26 20.4
003C5BC3 2019-03-17 19:30:16 20.6 26 20.4
003C5BC3 2019-03-17 18:57:46 20.6 26 20.6
003C5BC3 2019-03-17 18:25:17 20.6 26 20.6
003C5BC3 2019-03-17 17:52:48 20.6 26 20.5
003C5BC3 2019-03-17 17:20:18 20.7 26 20.5
003C5BC3 2019-03-17 16:47:48 20.6 27 20.4
003C5BC3 2019-03-17 16:15:18 20.7 27 20.5
003C5BC3 2019-03-17 15:42:47 20.7 27 20.6
003C5BC3 2019-03-17 15:10:17 20.7 27 20.6
003C5BC3 2019-03-17 14:37:48 20.7 27 20.6
003C5BC3 2019-03-17 14:05:19 20.7 27 20.6
003C5BC3 2019-03-17 13:32:49 20.7 27 20.5
003C5BC3 2019-03-17 13:00:19 20.7 27 20.6
003C5BC3 2019-03-17 12:27:49 20.7 27 20.7
003C5BC3 2019-03-17 11:55:20 20.6 27 20.7
003C5BC3 2019-03-17 11:22:50 20.7 27 20.8
003C5BC3 2019-03-17 10:50:20 20.7 27 20.7
003C5BC3 2019-03-17 10:17:51 20.6 27 20.4
003C5BC3 2019-03-17 09:45:22 20.7 27 20.2
003C5BC3 2019-03-17 09:12:53 20.7 27 20
003C5BC3 2019-03-17 08:40:24 20.7 27 20.1
003C5BC3 2019-03-17 08:07:22 20.6 27 21.3
003C5BC3 2019-03-17 07:34:54 20.6 27 21.3
003C5BC3 2019-03-17 07:02:26 20.6 27 21.1
003C5BC3 2019-03-17 06:29:57 20.6 27 21.2
003C5BC3 2019-03-17 05:57:29 20.6 27 21
003C5BC3 2019-03-17 05:25:00 20.6 27 21
003C5BC3 2019-03-17 04:52:31 20.6 27 21.2
003C5BC3 2019-03-17 04:20:02 20.6 27 21.1
003C5BC3 2019-03-17 03:47:32 20.6 27 21.1
003C5BC3 2019-03-17 03:15:03 20.6 27 21.1
003C5BC3 2019-03-17 02:42:35 20.6 27 21.1
003C5BC3 2019-03-17 02:10:07 20.6 27 21.1
003C5BC3 2019-03-17 01:37:38 20.6 27 21.1
003C5BC3 2019-03-17 01:05:09 20.7 27 21.1
003C5BC3 2019-03-17 00:32:40 20.6 27 20.9
003C5BC3 2019-03-17 00:00:13 20.6 27 21
003C5BC3 2019-03-16 23:27:43 20.6 27 20.9
003C5BC3 2019-03-16 22:55:14 20.6 27 20.9
003C5BC3 2019-03-16 22:22:45 20.6 27 20.8
003C5BC3 2019-03-16 21:50:16 20.6 27 20.9
003C5BC3 2019-03-16 21:17:46 20.7 27 21.1
003C5BC3 2019-03-16 20:45:17 20.6 26 21.1
003C5BC3 2019-03-16 20:12:49 20.6 26 21.2
003C5BC3 2019-03-16 19:40:21 20.6 26 21.2
003C5BC3 2019-03-16 19:07:52 20.7 26 19.8
003C5BC3 2019-03-16 18:35:24 20.7 26 19.8
003C5BC3 2019-03-16 18:02:54 20.7 26 19.9
003C5BC3 2019-03-16 17:30:25 20.7 26 20
003C5BC3 2019-03-16 16:57:56 20.7 26 20
003C5BC3 2019-03-16 16:25:27 20.7 26 20
003C5BC3 2019-03-16 15:52:58 20.7 26 20
003C5BC3 2019-03-16 15:20:30 20.7 26 19.9
003C5BC3 2019-03-16 14:48:01 20.7 26 20.1
003C5BC3 2019-03-16 14:15:33 20.7 26 20.2
003C5BC3 2019-03-16 13:43:05 20.7 26 20.3
003C5BC3 2019-03-16 13:10:36 20.7 26 20.3
003C5BC3 2019-03-16 12:38:08 20.7 26 20.4
003C5BC3 2019-03-16 12:05:39 20.7 26 20.5
003C5BC3 2019-03-16 11:33:10 20.7 26 20.6
003C5BC3 2019-03-16 11:00:42 20.7 26 21.9
003C5BC3 2019-03-16 10:28:13 20.7 26 21.8
003C5BC3 2019-03-16 09:55:43 20.7 26 22.1
003C5BC3 2019-03-16 09:23:14 20.7 26 22
003C5BC3 2019-03-16 08:50:45 20.7 26 22.1
003C5BC3 2019-03-16 08:18:15 20.7 26 22.2
003C5BC3 2019-03-16 07:45:46 20.7 26 22
003C5BC3 2019-03-16 07:13:18 20.7 26 22.1
003C5BC3 2019-03-16 06:40:49 20.7 26 22
003C5BC3 2019-03-16 06:08:21 20.7 26 22
003C5BC3 2019-03-16 05:35:53 20.7 26 22
003C5BC3 2019-03-16 05:02:51 20.7 26 22.1
003C5BC3 2019-03-16 04:30:23 20.7 26 22
003C5BC3 2019-03-16 03:57:55 20.7 26 22.1
003C5BC3 2019-03-16 03:25:27 20.7 26 22.2
003C5BC3 2019-03-16 02:52:59 20.7 26 22.1
003C5BC3 2019-03-16 02:20:32 20.7 26 22
003C5BC3 2019-03-16 01:48:03 20.7 26 21.9
003C5BC3 2019-03-16 01:15:34 20.7 26 21.9
003C5BC3 2019-03-16 00:43:06 20.7 27 21.8
003C5BC3 2019-03-16 00:10:37 20.7 26 21.7
003C5BC3 2019-03-15 23:38:10 20.7 26 21.6
003C5BC3 2019-03-15 23:05:40 20.7 27 21.6
003C5BC3 2019-03-15 22:33:09 20.8 27 21.7
003C5BC3 2019-03-15 22:00:40 20.8 26 20.4
003C5BC3 2019-03-15 21:28:12 20.8 26 20.3
003C5BC3 2019-03-15 20:55:42 20.8 26 20.2
003C5BC3 2019-03-15 20:23:13 20.9 26 20.4
003C5BC3 2019-03-15 19:50:44 20.9 26 20.5
003C5BC3 2019-03-15 19:18:16 20.9 26 20.4
003C5BC3 2019-03-15 18:45:48 20.9 26 20.4
003C5BC3 2019-03-15 18:13:19 20.9 26 20.4
003C5BC3 2019-03-15 17:40:51 20.9 26 20.4
003C5BC3 2019-03-15 17:08:21 20.9 26 20.5
003C5BC3 2019-03-15 16:35:53 20.9 26 20.5
003C5BC3 2019-03-15 16:03:23 20.9 26 20.3
003C5BC3 2019-03-15 15:30:56 20.9 26 20.3
003C5BC3 2019-03-15 14:58:26 20.9 26 20.5
003C5BC3 2019-03-15 14:25:58 20.9 26 20.2
003C5BC3 2019-03-15 13:53:29 20.9 26 20.1
003C5BC3 2019-03-15 13:21:00 20.9 26 20.1
003C5BC3 2019-03-15 12:48:32 20.9 26 20.3
003C5BC3 2019-03-15 12:16:03 20.9 26 20.6
003C5BC3 2019-03-15 11:43:33 20.8 26 20.4
003C5BC3 2019-03-15 11:11:04 20.8 26 20.5
003C5BC3 2019-03-15 10:38:36 20.8 25 20.6
003C5BC3 2019-03-15 10:06:07 20.7 25 20.7
003C5BC3 2019-03-15 09:33:39 20.7 25 20.6
003C5BC3 2019-03-15 09:01:12 20.7 25 20.6
003C5BC3 2019-03-15 08:28:43 20.6 25 20.7
003C5BC3 2019-03-15 07:56:15 20.6 25 20.7
003C5BC3 2019-03-15 07:23:47 20.7 24 20.5
003C5BC3 2019-03-15 06:51:19 20.7 24 20.4
003C5BC3 2019-03-15 06:18:50 20.7 24 20
003C5BC3 2019-03-15 05:46:21 20.7 24 19.9
003C5BC3 2019-03-15 05:13:53 20.7 24 20
003C5BC3 2019-03-15 04:41:23 20.7 24 19.9
003C5BC3 2019-03-15 04:08:55 20.7 24 19.8
003C5BC3 2019-03-15 03:36:27 20.7 24 19.6
003C5BC3 2019-03-15 03:03:59 20.7 24 19.4
003C5BC3 2019-03-15 02:31:30 20.7 24 19.4
003C5BC3 2019-03-15 01:58:27 20.7 24 19
003C5BC3 2019-03-15 01:25:58 20.7 24 19.3
003C5BC3 2019-03-15 00:53:29 20.7 24 19.7
003C5BC3 2019-03-15 00:21:00 20.7 24 19.8
003C5BC3 2019-03-14 23:48:31 20.7 24 19.6
003C5BC3 2019-03-14 23:16:01 20.8 24 19.3
003C5BC3 2019-03-14 22:43:31 20.8 24 19.6
003C5BC3 2019-03-14 22:11:01 20.8 24 19.5
003C5BC3 2019-03-14 21:38:32 20.8 24 19.4
003C5BC3 2019-03-14 21:06:04 20.8 24 19.2
003C5BC3 2019-03-14 20:33:33 20.9 24 19
003C5BC3 2019-03-14 20:01:05 20.9 24 18.7
003C5BC3 2019-03-14 19:28:36 20.9 24 18.7
003C5BC3 2019-03-14 18:56:07 20.9 24 18.8
003C5BC3 2019-03-14 18:23:38 21 23 19.1
003C5BC3 2019-03-14 17:51:09 21 23 19.2
003C5BC3 2019-03-14 17:18:40 21 23 19.4
003C5BC3 2019-03-14 16:46:11 21 23 19.5
003C5BC3 2019-03-14 16:13:43 21 23 19.4
003C5BC3 2019-03-14 15:41:15 21 23 19.5
003C5BC3 2019-03-14 15:08:47 21 23 19.5
003C5BC3 2019-03-14 14:36:19 21 23 19.7
003C5BC3 2019-03-14 14:03:51 21 23 20
003C5BC3 2019-03-14 13:31:22 21 23 20.1
003C5BC3 2019-03-14 12:58:53 20.9 23 20.3
003C5BC3 2019-03-14 12:26:24 20.9 23 20.4
003C5BC3 2019-03-14 11:53:55 20.9 22 20.3
003C5BC3 2019-03-14 11:21:26 20.9 22 20.1
003C5BC3 2019-03-14 10:48:57 20.8 22 20.1
003C5BC3 2019-03-14 10:16:27 20.8 22 20.1
003C5BC3 2019-03-14 09:43:58 20.8 21 20.3
003C5BC3 2019-03-14 09:11:29 20.7 21 20.1
003C5BC3 2019-03-14 08:39:00 20.7 20 21.5
003C5BC3 2019-03-14 04:51:38 20.7 19 21.7
003C5BC3 2019-03-14 04:19:10 20.7 18 21.6
003C5BC3 2019-03-14 03:46:42 20.7 18 21.5
003C5BC3 2019-03-14 03:14:13 20.7 18 21.4
003C5BC3 2019-03-14 02:41:45 20.7 18 22.5
003C5BC3 2019-03-14 02:09:17 20.7 18 22.5
003C5BC3 2019-03-14 01:36:49 20.7 18 22.5
003C5BC3 2019-03-14 01:04:21 20.7 17 22.4
003C5BC3 2019-03-14 00:31:53 20.7 17 22.4
003C5BC3 2019-03-13 23:59:24 20.7 17 22.3
003C5BC3 2019-03-13 23:26:56 20.7 17 22.2
003C5BC3 2019-03-13 22:53:54 20.7 17 22.2
003C5BC3 2019-03-13 22:21:26 20.7 17 22.3
003C5BC3 2019-03-13 21:48:57 20.7 17 22.4
003C5BC3 2019-03-13 21:16:29 20.8 17 22.6
003C5BC3 2019-03-13 20:44:01 20.8 17 22.6
003C5BC3 2019-03-13 20:11:32 20.8 16 22.7
003C5BC3 2019-03-13 19:39:03 20.8 16 21.9
003C5BC3 2019-03-13 19:06:34 20.8 16 22
003C5BC3 2019-03-13 18:34:05 20.9 16 22.1
003C5BC3 2019-03-13 18:01:36 21 16 22.2
003C5BC3 2019-03-13 17:29:07 21 16 22.5
003C5BC3 2019-03-13 16:56:38 21 16 22.6
003C5BC3 2019-03-13 16:24:08 21 16 22.6
003C5BC3 2019-03-13 15:51:40 21 16 22.7
003C5BC3 2019-03-13 15:19:11 21 16 22.9
003C5BC3 2019-03-13 14:46:41 20.9 16 23.1
003C5BC3 2019-03-13 14:14:14 20.9 16 23.3
003C5BC3 2019-03-13 13:41:46 20.9 16 22.5
003C5BC3 2019-03-13 13:09:17 20.9 16 22.8
003C5BC3 2019-03-13 12:36:48 20.9 16 22.9
003C5BC3 2019-03-13 12:04:20 20.9 16 23
003C5BC3 2019-03-13 11:31:53 20.9 16 23.2
003C5BC3 2019-03-13 10:59:23 20.8 16 23.3
003C5BC3 2019-03-13 10:26:54 20.7 16 23.4
003C5BC3 2019-03-13 09:54:25 20.6 16 23.4
003C5BC3 2019-03-13 09:21:57 20.5 15 23.4
003C5BC3 2019-03-13 08:49:28 20.3 15 23.4
003C5BC3 2019-03-13 08:17:01 20.4 15 23.4
003C5BC3 2019-03-13 07:44:33 20.4 15 23.2
003C5BC3 2019-03-13 07:12:05 20.4 15 23.3
003C5BC3 2019-03-13 06:39:36 20.4 15 23.3
003C5BC3 2019-03-13 06:07:09 20.4 16 23.2
003C5BC3 2019-03-13 05:34:40 20.4 16 23.2
003C5BC3 2019-03-13 05:02:13 20.4 16 23
003C5BC3 2019-03-13 04:29:44 20.5 16 22.9
003C5BC3 2019-03-13 03:57:16 20.5 16 22.8
003C5BC3 2019-03-13 03:24:47 20.5 16 22.7
003C5BC3 2019-03-13 02:52:18 20.5 16 22.7
003C5BC3 2019-03-13 02:19:50 20.5 16 23.4
003C5BC3 2019-03-13 01:47:21 20.5 16 23.4
003C5BC3 2019-03-13 01:14:52 20.5 16 23.2
003C5BC3 2019-03-13 00:42:22 20.5 16 23.2
003C5BC3 2019-03-13 00:09:53 20.6 16 23.1
003C5BC3 2019-03-12 23:37:24 20.6 16 22.9
003C5BC3 2019-03-12 23:04:55 20.6 16 23
003C5BC3 2019-03-12 22:32:27 20.6 16 23
003C5BC3 2019-03-12 21:59:58 20.6 16 23.6
003C5BC3 2019-03-12 21:27:30 20.7 16 24.2
003C5BC3 2019-03-12 20:55:03 20.7 16 24.7
003C5BC3 2019-03-12 20:22:35 20.7 16 25.1
003C5BC3 2019-03-12 19:49:33 20.7 16 25.7
003C5BC3 2019-03-12 19:17:05 20.7 16 26.1
003C5BC3 2019-03-12 18:44:36 20.7 16 26.4
003C5BC3 2019-03-12 18:12:09 20.8 16 26.7
003C5BC3 2019-03-12 17:39:40 20.8 16 27
003C5BC3 2019-03-12 17:07:12 20.8 16 27.3
003C5BC3 2019-03-12 16:34:44 20.8 16 27.6
003C5BC3 2019-03-12 16:02:15 20.8 16 27.8
003C5BC3 2019-03-12 15:29:47 20.8 16 28.1
003C5BC3 2019-03-12 14:57:20 20.8 16 28.3
003C5BC3 2019-03-12 14:24:51 20.7 16 28.5
003C5BC3 2019-03-12 13:52:23 20.7 16 28.7
003C5BC3 2019-03-12 13:19:54 20.7 16 28.7
003C5BC3 2019-03-12 12:47:26 20.7 16 28.9
003C5BC3 2019-03-12 12:14:57 20.7 16 29.1
003C5BC3 2019-03-12 11:42:30 20.6 16 29.3
003C5BC3 2019-03-12 11:10:02 20.6 16 29.4
003C5BC3 2019-03-12 10:37:33 20.5 16 29.6
003C5BC3 2019-03-12 10:05:05 20.5 16 29.7
003C5BC3 2019-03-12 09:32:36 20.4 16 29.9
003C5BC3 2019-03-12 09:00:08 20.4 16 29.9
003C5BC3 2019-03-12 08:27:40 20.4 16 29.9
003C5BC3 2019-03-12 07:55:12 20.4 16 29.9
003C5BC3 2019-03-12 07:22:44 20.4 16 29.9
003C5BC3 2019-03-12 06:50:15 20.4 16 30
003C5BC3 2019-03-12 06:17:47 20.4 16 30
003C5BC3 2019-03-12 05:45:18 20.4 16 30
003C5BC3 2019-03-12 05:12:49 20.5 16 29.9
003C5BC3 2019-03-12 04:40:21 20.4 16 29.7
003C5BC3 2019-03-12 04:07:52 20.5 16 29.5
003C5BC3 2019-03-12 03:35:23 20.5 16 29.4
003C5BC3 2019-03-12 03:02:55 20.5 16 29.2
003C5BC3 2019-03-12 02:30:26 20.5 16 29
003C5BC3 2019-03-12 01:57:58 20.5 16 28.8
003C5BC3 2019-03-12 01:25:29 20.5 17 28.6
003C5BC3 2019-03-12 00:52:59 20.5 17 28.4
003C5BC3 2019-03-12 00:20:32 20.5 17 28.2
003C5BC3 2019-03-11 23:48:03 20.6 16 28
003C5BC3 2019-03-11 23:15:34 20.6 17 27.8
003C5BC3 2019-03-11 22:43:05 20.6 16 27.5
003C5BC3 2019-03-11 22:10:37 20.6 17 27.2
003C5BC3 2019-03-11 21:38:08 20.7 16 26.9
003C5BC3 2019-03-11 21:05:40 20.7 17 26.6
003C5BC3 2019-03-11 20:33:11 20.7 16 26.3
003C5BC3 2019-03-11 20:00:42 20.7 16 26
003C5BC3 2019-03-11 19:28:14 20.8 16 25.5
003C5BC3 2019-03-11 18:55:46 20.8 16 25.1
003C5BC3 2019-03-11 18:23:18 20.8 16 25.1
003C5BC3 2019-03-11 17:50:49 20.8 16 24.6
003C5BC3 2019-03-11 17:18:20 20.9 16 24.1
003C5BC3 2019-03-11 16:45:21 20.8 17 22.7
003C5BC3 2019-03-11 16:12:53 20.8 17 22.7
003C5BC3 2019-03-11 15:40:24 20.7 17 22.8
003C5BC3 2019-03-11 15:07:56 20.7 17 22.9
003C5BC3 2019-03-11 14:35:27 20.7 17 22.9
003C5BC3 2019-03-11 14:02:58 20.6 17 22.9
003C5BC3 2019-03-11 13:30:30 20.6 17 23
003C5BC3 2019-03-11 12:58:00 20.6 17 23
003C5BC3 2019-03-11 12:25:31 20.6 17 22.9
003C5BC3 2019-03-11 11:53:02 20.6 17 23.6
003C5BC3 2019-03-11 11:20:34 20.5 17 23.7
003C5BC3 2019-03-11 10:48:06 20.5 17 23.5
003C5BC3 2019-03-11 10:15:38 20.5 17 23.6
003C5BC3 2019-03-11 09:43:11 20.4 17 23.6
003C5BC3 2019-03-11 09:10:43 20.4 18 23.6
003C5BC3 2019-03-11 08:38:15 20.4 18 23.6
003C5BC3 2019-03-11 08:05:48 20.4 18 23.7
003C5BC3 2019-03-11 07:33:20 20.4 18 23.7
003C5BC3 2019-03-11 07:00:52 20.4 18 23.6
003C5BC3 2019-03-11 06:28:23 20.4 18 23.6
003C5BC3 2019-03-11 05:55:54 20.4 18 23.6
003C5BC3 2019-03-11 05:23:27 20.4 19 22.8
003C5BC3 2019-03-11 04:50:58 20.5 19 22.8
003C5BC3 2019-03-11 04:18:30 20.4 19 22.7
003C5BC3 2019-03-11 03:46:02 20.5 19 22.8
003C5BC3 2019-03-11 03:13:33 20.5 19 22.8
003C5BC3 2019-03-11 02:41:04 20.5 19 22.7
003C5BC3 2019-03-11 02:08:35 20.5 19 22.6
003C5BC3 2019-03-11 01:36:06 20.5 19 22.5
003C5BC3 2019-03-11 01:03:36 20.5 19 22.4
003C5BC3 2019-03-11 00:31:08 20.5 20 22.4
003C5BC3 2019-03-10 23:58:37 20.5 20 22.4
003C5BC3 2019-03-10 23:26:09 20.5 20 22.3
003C5BC3 2019-03-10 22:53:40 20.6 20 22.2
003C5BC3 2019-03-10 22:21:11 20.6 20 21.1
003C5BC3 2019-03-10 21:48:42 20.6 20 21
003C5BC3 2019-03-10 21:16:13 20.6 20 21.1
003C5BC3 2019-03-10 20:43:45 20.6 20 21
003C5BC3 2019-03-10 20:11:16 20.6 20 20.8
003C5BC3 2019-03-10 19:38:47 20.7 20 20.8
003C5BC3 2019-03-10 19:06:18 20.7 20 20.8
003C5BC3 2019-03-10 18:33:49 20.7 21 20.7
003C5BC3 2019-03-10 18:01:21 20.7 21 20.7
003C5BC3 2019-03-10 17:28:52 20.7 21 20.7
003C5BC3 2019-03-10 16:56:25 20.7 21 20.8
003C5BC3 2019-03-10 16:23:57 20.7 21 20.8
003C5BC3 2019-03-10 15:51:28 20.7 22 21
003C5BC3 2019-03-10 15:18:59 20.7 22 21.1
003C5BC3 2019-03-10 14:46:30 20.7 23 21.1
003C5BC3 2019-03-10 14:14:02 20.7 24 20.9
003C5BC3 2019-03-10 13:41:01 20.6 24 20.9
003C5BC3 2019-03-10 13:08:32 20.6 24 20.8
003C5BC3 2019-03-10 12:36:03 20.6 24 20.9
003C5BC3 2019-03-10 12:03:35 20.6 24 21
003C5BC3 2019-03-10 11:31:07 20.5 24 21
003C5BC3 2019-03-10 10:58:39 20.6 24 20.9
003C5BC3 2019-03-10 10:26:09 20.6 24 20.9
003C5BC3 2019-03-10 09:53:41 20.6 24 21
003C5BC3 2019-03-10 09:21:12 20.6 24 21.2
003C5BC3 2019-03-10 08:48:44 20.6 24 21.2
003C5BC3 2019-03-10 08:16:15 20.6 24 21.3
003C5BC3 2019-03-10 07:43:46 20.6 24 21.3
003C5BC3 2019-03-10 07:11:18 20.6 24 21.4
003C5BC3 2019-03-10 06:38:49 20.6 24 21.3
003C5BC3 2019-03-10 06:06:20 20.6 24 21.5
003C5BC3 2019-03-10 05:33:51 20.6 24 21.4
003C5BC3 2019-03-10 05:01:20 20.6 24 21.4
003C5BC3 2019-03-10 04:28:49 20.6 24 21.5
003C5BC3 2019-03-10 03:56:20 20.6 24 21.4
003C5BC3 2019-03-10 03:23:51 20.6 24 21.5
003C5BC3 2019-03-10 02:51:22 20.6 24 21.6
003C5BC3 2019-03-10 02:18:52 20.6 24 21.5
003C5BC3 2019-03-10 01:46:23 20.6 24 21.6
003C5BC3 2019-03-10 01:13:54 20.6 24 21.8
003C5BC3 2019-03-10 00:41:25 20.6 24 21.6
003C5BC3 2019-03-10 00:08:55 20.6 24 21.8
003C5BC3 2019-03-09 23:36:26 20.7 24 21.8
003C5BC3 2019-03-09 23:03:58 20.6 24 22
003C5BC3 2019-03-09 22:31:29 20.7 24 22
003C5BC3 2019-03-09 21:59:00 20.7 24 22
003C5BC3 2019-03-09 21:26:31 20.7 24 22
003C5BC3 2019-03-09 20:54:02 20.7 23 22.2
003C5BC3 2019-03-09 20:21:33 20.7 23 22.1
003C5BC3 2019-03-09 19:49:03 20.7 23 22.1
003C5BC3 2019-03-09 19:16:34 20.7 23 22.1
003C5BC3 2019-03-09 18:44:04 20.8 23 22.1
003C5BC3 2019-03-09 18:11:35 20.8 23 22.2
003C5BC3 2019-03-09 17:39:07 20.8 23 22.2
003C5BC3 2019-03-09 17:06:37 20.8 23 22.3
003C5BC3 2019-03-09 16:34:09 20.8 23 22.2
003C5BC3 2019-03-09 16:01:40 20.8 23 22.2
003C5BC3 2019-03-09 15:29:11 20.8 24 22.3
003C5BC3 2019-03-09 14:56:43 20.8 24 22.2
003C5BC3 2019-03-09 14:24:15 20.8 24 22.5
003C5BC3 2019-03-09 13:51:46 20.7 24 22.5
003C5BC3 2019-03-09 13:19:17 20.7 24 22.3
003C5BC3 2019-03-09 12:46:49 20.7 24 22.4
003C5BC3 2019-03-09 12:14:21 20.7 24 22.3
003C5BC3 2019-03-09 11:41:53 20.7 24 22.4
003C5BC3 2019-03-09 11:09:25 20.7 24 22.4
003C5BC3 2019-03-09 10:36:24 20.6 24 22.5
003C5BC3 2019-03-09 10:03:56 20.6 24 22.4
003C5BC3 2019-03-09 09:31:27 20.6 25 22.4
003C5BC3 2019-03-09 08:58:59 20.6 25 22.5
003C5BC3 2019-03-09 08:26:31 20.6 25 22.5
003C5BC3 2019-03-09 07:54:02 20.6 25 22.4
003C5BC3 2019-03-09 07:21:34 20.6 25 22.5
003C5BC3 2019-03-09 06:49:06 20.6 26 22.3
003C5BC3 2019-03-09 06:16:38 20.7 26 22.3
003C5BC3 2019-03-09 05:44:09 20.7 26 22.1
003C5BC3 2019-03-09 05:11:42 20.7 26 21.9
003C5BC3 2019-03-09 04:39:11 20.7 26 21.9
003C5BC3 2019-03-09 04:06:43 20.8 26 21.8
003C5BC3 2019-03-09 03:34:14 20.8 26 21.7
003C5BC3 2019-03-09 03:01:46 20.8 27 21.5
003C5BC3 2019-03-09 02:29:18 20.8 27 21.3
003C5BC3 2019-03-09 01:56:50 20.8 27 22.3
003C5BC3 2019-03-09 01:24:21 20.8 27 22.1
003C5BC3 2019-03-09 00:51:52 20.8 27 22
003C5BC3 2019-03-09 00:19:22 20.8 27 22.1
003C5BC3 2019-03-08 23:46:54 20.9 27 22
003C5BC3 2019-03-08 23:14:25 20.9 27 21.9
003C5BC3 2019-03-08 22:41:57 20.9 27 22.7
003C5BC3 2019-03-08 22:09:27 20.9 27 22.8
003C5BC3 2019-03-08 21:37:00 21 27 22.8
003C5BC3 2019-03-08 21:04:32 21 27 22.7
003C5BC3 2019-03-08 20:32:04 21 27 22.8
003C5BC3 2019-03-08 19:59:35 21.1 27 22.6
003C5BC3 2019-03-08 19:27:08 21.1 27 22.6
003C5BC3 2019-03-08 18:54:38 21.1 27 22.6
003C5BC3 2019-03-08 18:22:10 21.1 27 22.5
003C5BC3 2019-03-08 17:49:42 21.2 27 22.4
003C5BC3 2019-03-08 17:17:14 21.2 27 23.3
003C5BC3 2019-03-08 16:44:45 21.2 27 23.3
003C5BC3 2019-03-08 16:12:17 21.2 27 23.4
003C5BC3 2019-03-08 15:39:48 21.1 27 23.4
003C5BC3 2019-03-08 15:07:21 21.1 26 23.4
003C5BC3 2019-03-08 14:34:53 21.1 26 23.4
003C5BC3 2019-03-08 14:02:23 21 26 23.4
003C5BC3 2019-03-08 13:29:53 21 26 23.4
003C5BC3 2019-03-08 12:57:25 21 26 23.5
003C5BC3 2019-03-08 12:24:54 20.9 26 22.8
003C5BC3 2019-03-08 11:52:25 20.9 25 22.8
003C5BC3 2019-03-08 11:19:55 20.9 25 22.9
003C5BC3 2019-03-08 10:47:25 20.9 25 22.8
003C5BC3 2019-03-08 10:14:57 20.8 25 22.8
003C5BC3 2019-03-08 09:42:28 20.8 25 22.9
003C5BC3 2019-03-08 09:09:59 20.8 24 22
003C5BC3 2019-03-08 08:37:31 20.8 24 21.8
003C5BC3 2019-03-08 08:05:01 20.8 24 22.6
003C5BC3 2019-03-08 07:31:59 20.8 24 22.5
003C5BC3 2019-03-08 06:59:30 20.8 23 22.4
003C5BC3 2019-03-08 06:27:02 20.8 23 22.3
003C5BC3 2019-03-08 05:54:35 20.8 23 22.2
003C5BC3 2019-03-08 05:22:06 20.8 23 22.1
003C5BC3 2019-03-08 04:49:37 20.7 23 22.3
003C5BC3 2019-03-08 04:17:09 20.8 23 21.2
003C5BC3 2019-03-08 03:44:41 20.8 23 21.1
003C5BC3 2019-03-08 03:12:11 20.8 23 21.1
003C5BC3 2019-03-08 02:39:42 20.8 23 21.2
003C5BC3 2019-03-08 02:07:14 20.8 23 21.1
003C5BC3 2019-03-08 01:34:45 20.8 23 21.2
003C5BC3 2019-03-08 01:02:16 20.8 22 21.2
003C5BC3 2019-03-08 00:29:47 20.8 22 21.1
003C5BC3 2019-03-07 23:57:17 20.8 22 21
003C5BC3 2019-03-07 23:24:48 20.8 22 20.9
003C5BC3 2019-03-07 22:52:20 20.9 22 20.7
003C5BC3 2019-03-07 22:19:51 20.9 22 20.5
003C5BC3 2019-03-07 21:47:20 20.9 22 20.3
003C5BC3 2019-03-07 21:14:52 20.9 22 20.3
003C5BC3 2019-03-07 20:42:21 21 22 20.2
003C5BC3 2019-03-07 20:09:52 21 22 20.1
003C5BC3 2019-03-07 19:37:21 21 22 20.1
003C5BC3 2019-03-07 19:04:52 21 22 18.1
003C5BC3 2019-03-07 18:32:22 21.1 22 18
003C5BC3 2019-03-07 17:59:52 21.2 22 18.1
003C5BC3 2019-03-07 17:27:24 21.2 22 18.2
003C5BC3 2019-03-07 16:54:55 21.3 22 18.2
003C5BC3 2019-03-07 16:22:26 21.2 21 18.2
003C5BC3 2019-03-07 15:49:57 21.2 21 18.2
003C5BC3 2019-03-07 15:17:28 21.2 21 17.9
003C5BC3 2019-03-07 14:44:57 21.2 21 17.8
003C5BC3 2019-03-07 14:12:28 21.1 20 17.6
003C5BC3 2019-03-07 13:39:58 21 19 17.2
003C5BC3 2019-03-07 13:07:28 21 19 16.9
003C5BC3 2019-03-07 12:34:59 21 19 16.7
003C5BC3 2019-03-07 12:02:30 21 18 16.5
003C5BC3 2019-03-07 11:30:00 20.9 18 17
003C5BC3 2019-03-07 10:57:31 20.9 18 17.1
003C5BC3 2019-03-07 10:25:02 20.8 17 16.7
003C5BC3 2019-03-07 09:52:32 20.8 16 16.7
003C5BC3 2019-03-07 09:20:04 20.8 16 16.8
003C5BC3 2019-03-07 08:47:35 20.8 16 17.1
003C5BC3 2019-03-07 08:15:05 20.8 15 17.2
003C5BC3 2019-03-07 07:42:36 20.8 15 17
003C5BC3 2019-03-07 07:10:06 20.8 15 17
003C5BC3 2019-03-07 06:37:37 20.8 15 16.9
003C5BC3 2019-03-07 06:05:08 20.8 14 16.7
003C5BC3 2019-03-07 05:32:39 20.8 14 16.5
003C5BC3 2019-03-07 05:00:10 20.8 14 16.6
003C5BC3 2019-03-07 04:27:06 20.8 14 16.8
003C5BC3 2019-03-07 03:54:36 20.8 14 16.7
003C5BC3 2019-03-07 03:22:07 20.8 13 16.9
003C5BC3 2019-03-07 02:49:37 20.8 13 16.9
003C5BC3 2019-03-07 02:17:08 20.8 13 16.7
003C5BC3 2019-03-07 01:44:39 20.8 13 16.7
003C5BC3 2019-03-07 01:12:10 20.8 13 16.8
003C5BC3 2019-03-07 00:39:41 20.7 13 16.7
003C5BC3 2019-03-07 00:07:12 20.8 13 16.7
003C5BC3 2019-03-06 23:34:44 20.8 13 19.3
003C5BC3 2019-03-06 23:02:14 20.8 13 19.5
003C5BC3 2019-03-06 22:29:45 20.8 12 19.3
003C5BC3 2019-03-06 21:57:15 20.8 12 19.2
003C5BC3 2019-03-06 21:24:46 20.9 12 19.2
003C5BC3 2019-03-06 20:52:17 20.8 12 19.3
003C5BC3 2019-03-06 20:19:51 20.9 12 19.3
003C5BC3 2019-03-06 19:47:19 20.9 12 19.3
003C5BC3 2019-03-06 19:14:50 20.9 12 19.3
003C5BC3 2019-03-06 18:42:21 20.9 12 19.3
003C5BC3 2019-03-06 18:09:52 20.9 12 19.3
003C5BC3 2019-03-06 17:37:24 21 12 19.5
003C5BC3 2019-03-06 17:04:55 21 12 19.6
003C5BC3 2019-03-06 16:32:25 21 12 19.6
003C5BC3 2019-03-06 15:59:55 21 12 19.6
003C5BC3 2019-03-06 15:27:27 21 12 19.4
003C5BC3 2019-03-06 14:54:57 20.9 12 19.3
003C5BC3 2019-03-06 14:22:29 20.8 12 19.3
003C5BC3 2019-03-06 13:50:00 20.8 11 19.3
003C5BC3 2019-03-06 13:17:33 20.7 11 19.3
003C5BC3 2019-03-06 12:45:05 20.7 12 19.3
003C5BC3 2019-03-06 12:12:34 20.7 12 19.3
003C5BC3 2019-03-06 11:40:05 20.7 12 19.2
003C5BC3 2019-03-06 11:07:35 20.6 12 19.2
003C5BC3 2019-03-06 10:35:08 20.6 12 19.2
003C5BC3 2019-03-06 10:02:37 20.5 12 16.5
003C5BC3 2019-03-06 09:30:08 20.5 12 16.3
003C5BC3 2019-03-06 08:57:39 20.5 12 16.5
003C5BC3 2019-03-06 08:25:09 20.5 12 16.6
003C5BC3 2019-03-06 07:52:38 20.6 12 16.7
003C5BC3 2019-03-06 07:20:09 20.6 13 16.6
003C5BC3 2019-03-06 06:47:38 20.6 13 16.8
003C5BC3 2019-03-06 06:15:10 20.6 13 16.8
003C5BC3 2019-03-06 05:42:39 20.6 13 17
003C5BC3 2019-03-06 05:10:11 20.6 13 16.9
003C5BC3 2019-03-06 04:37:41 20.6 13 16.9
003C5BC3 2019-03-06 04:05:12 20.6 13 16.6
003C5BC3 2019-03-06 03:32:44 20.7 13 16.4
003C5BC3 2019-03-06 03:00:15 20.7 13 16.4
003C5BC3 2019-03-06 02:27:47 20.7 13 16.1
003C5BC3 2019-03-06 01:55:21 20.7 13 16.6
003C5BC3 2019-03-06 01:22:17 20.7 13 16.3
003C5BC3 2019-03-06 00:49:48 20.7 14 16.1
003C5BC3 2019-03-06 00:17:18 20.8 14 16.1
003C5BC3 2019-03-05 23:44:49 20.8 14 16
003C5BC3 2019-03-05 23:12:19 20.9 14 16.5
003C5BC3 2019-03-05 22:39:51 20.9 14 16.5
003C5BC3 2019-03-05 22:07:23 20.9 14 16.6
003C5BC3 2019-03-05 21:34:55 20.9 14 16.5
003C5BC3 2019-03-05 21:02:25 20.9 14 16.4
003C5BC3 2019-03-05 20:29:56 20.9 14 16.4
003C5BC3 2019-03-05 19:57:29 20.9 14 16.4
003C5BC3 2019-03-05 19:25:00 21 14 16.2
003C5BC3 2019-03-05 18:52:31 21 14 16.3
003C5BC3 2019-03-05 18:20:01 21 14 16.3
003C5BC3 2019-03-05 17:47:32 21 15 16.4
003C5BC3 2019-03-05 17:15:04 21 15 16.3
003C5BC3 2019-03-05 16:42:36 21 15 19
003C5BC3 2019-03-05 16:10:07 21 16 19.2
003C5BC3 2019-03-05 15:37:38 20.9 16 19.2
003C5BC3 2019-03-05 15:05:09 20.8 16 19.2
003C5BC3 2019-03-05 14:32:41 20.7 17 19.2
003C5BC3 2019-03-05 14:00:12 20.7 17 19.2
003C5BC3 2019-03-05 13:27:43 20.7 17 19.3
003C5BC3 2019-03-05 12:55:13 20.6 17 19.1
003C5BC3 2019-03-05 12:22:44 20.6 17 19.2
003C5BC3 2019-03-05 11:50:13 20.6 17 19.2
003C5BC3 2019-03-05 11:17:44 20.6 18 19.2
003C5BC3 2019-03-05 10:45:14 20.6 18 19.3
003C5BC3 2019-03-05 10:12:45 20.6 18 19.3
003C5BC3 2019-03-05 09:40:17 20.5 18 19.1
003C5BC3 2019-03-05 09:07:48 20.6 18 19.1
003C5BC3 2019-03-05 08:35:19 20.6 18 20.8
003C5BC3 2019-03-05 08:02:50 20.6 19 20.8
003C5BC3 2019-03-05 07:30:22 20.6 19 20.9
003C5BC3 2019-03-05 06:57:53 20.6 19 20.8
003C5BC3 2019-03-05 06:25:24 20.6 19 20.7
003C5BC3 2019-03-05 05:52:55 20.6 19 20.7
003C5BC3 2019-03-05 04:47:56 20.6 19 20.7
003C5BC3 2019-03-05 04:15:27 20.6 19 20.5
003C5BC3 2019-03-05 03:42:58 20.6 19 20.4
003C5BC3 2019-03-05 03:10:30 20.6 19 18.8
003C5BC3 2019-03-05 02:38:02 20.6 19 18.6
003C5BC3 2019-03-05 02:05:33 20.6 19 18.7
003C5BC3 2019-03-05 01:33:07 20.6 19 18.7
003C5BC3 2019-03-05 01:00:36 20.6 18 18.6
003C5BC3 2019-03-05 00:28:08 20.6 18 18.6
003C5BC3 2019-03-04 23:55:38 20.6 18 18.8
003C5BC3 2019-03-04 23:23:08 20.6 18 18.9
003C5BC3 2019-03-04 22:50:39 20.6 18 18.8
003C5BC3 2019-03-04 22:17:36 20.7 18 18.8
003C5BC3 2019-03-04 21:45:07 20.6 18 18.8
003C5BC3 2019-03-04 21:12:38 20.6 18 20.6
003C5BC3 2019-03-04 20:40:09 20.6 18 20.6
003C5BC3 2019-03-04 20:07:40 20.6 18 20.6
003C5BC3 2019-03-04 19:35:11 20.6 18 18.8
003C5BC3 2019-03-04 19:02:41 20.6 18 18.8
003C5BC3 2019-03-04 18:30:13 20.6 18 18.7
003C5BC3 2019-03-04 17:57:44 20.6 18 18.8
003C5BC3 2019-03-04 17:25:15 20.6 18 18.8
003C5BC3 2019-03-04 16:52:50 20.6 18 18.8
003C5BC3 2019-03-04 16:20:16 20.6 18 18.9
003C5BC3 2019-03-04 15:47:47 20.5 18 19
003C5BC3 2019-03-04 15:15:17 20.5 18 19.1
003C5BC3 2019-03-04 14:42:49 20.5 17 18.8
003C5BC3 2019-03-04 14:10:19 20.4 17 18.8
003C5BC3 2019-03-04 13:37:50 20.4 17 18.8
003C5BC3 2019-03-04 13:05:21 20.4 17 18.7
003C5BC3 2019-03-04 12:32:53 20.4 17 18.7
003C5BC3 2019-03-04 12:00:21 20.3 17 18.7
003C5BC3 2019-03-04 11:27:52 20.3 17 18.6
003C5BC3 2019-03-04 10:55:23 20.3 17 18.3
003C5BC3 2019-03-04 10:22:55 20.2 17 18.3
003C5BC3 2019-03-04 09:50:27 20.2 17 20.3
003C5BC3 2019-03-04 09:17:56 20.2 17 20.3
003C5BC3 2019-03-04 08:45:28 20.1 17 20.3
003C5BC3 2019-03-04 08:13:00 20.1 18 18.2
003C5BC3 2019-03-04 07:40:31 20.2 18 18.2
003C5BC3 2019-03-04 07:08:02 20.2 18 18.1
003C5BC3 2019-03-04 06:35:33 20.2 18 18.1
003C5BC3 2019-03-04 06:03:04 20.2 18 18.3
003C5BC3 2019-03-04 05:30:38 20.2 18 18.3
003C5BC3 2019-03-04 04:58:06 20.1 18 18.4
003C5BC3 2019-03-04 04:25:37 20.2 18 20.3
003C5BC3 2019-03-04 03:53:08 20.2 18 20.3
003C5BC3 2019-03-04 03:20:39 20.2 18 20.4
003C5BC3 2019-03-04 02:48:10 20.2 18 20.4
003C5BC3 2019-03-04 02:15:42 20.2 18 21.7
003C5BC3 2019-03-04 01:43:12 20.2 18 22.7
003C5BC3 2019-03-04 01:10:45 20.2 18 22.7
003C5BC3 2019-03-04 00:38:17 20.2 17 22.7
003C5BC3 2019-03-04 00:05:44 20.2 18 22.7
003C5BC3 2019-03-03 23:33:16 20.2 18 23.5
003C5BC3 2019-03-03 23:00:49 20.2 17 23.5
003C5BC3 2019-03-03 22:28:18 20.2 17 23.5
003C5BC3 2019-03-03 21:55:52 20.2 18 23.5
003C5BC3 2019-03-03 21:23:22 20.2 18 23.6
003C5BC3 2019-03-03 20:50:54 20.2 18 23.6
003C5BC3 2019-03-03 20:18:27 20.3 18 22.8
003C5BC3 2019-03-03 19:45:58 20.5 18 22.8
003C5BC3 2019-03-03 19:44:40 20.2 18 22.9
003C5BC3 2019-03-03 19:12:12 20.3 18 23
003C5BC3 2019-03-03 18:39:43 20.3 18 23.1
003C5BC3 2019-03-03 18:07:15 20.3 18 23.1
003C5BC3 2019-03-03 17:34:47 20.3 18 23.2
003C5BC3 2019-03-03 17:02:18 20.3 18 23.2
003C5BC3 2019-03-03 16:29:49 20.3 18 23.9
003C5BC3 2019-03-03 15:57:23 20.3 18 23.9
003C5BC3 2019-03-03 15:24:52 20.3 18 23.9
003C5BC3 2019-03-03 14:52:25 20.3 18 24.5
003C5BC3 2019-03-03 14:19:54 20.3 18 24.5
003C5BC3 2019-03-03 13:47:25 20.3 18 24.5
003C5BC3 2019-03-03 13:14:55 20.3 18 23.9
003C5BC3 2019-03-03 12:42:26 20.3 18 23.2
003C5BC3 2019-03-03 12:09:57 20.3 18 23.4
003C5BC3 2019-03-03 11:37:28 20.3 18 23.4
003C5BC3 2019-03-03 11:04:59 20.3 18 23.4
003C5BC3 2019-03-03 10:32:31 20.3 18 22.5
003C5BC3 2019-03-03 10:00:04 20.3 18 22.4
003C5BC3 2019-03-03 09:27:32 20.3 18 22.5
003C5BC3 2019-03-03 08:55:07 20.3 18 22.6
003C5BC3 2019-03-03 08:22:34 20.3 18 22.5
003C5BC3 2019-03-03 07:50:06 20.3 18 22.5
003C5BC3 2019-03-03 07:17:34 20.4 18 22.5
003C5BC3 2019-03-03 06:45:06 20.4 18 22.5
003C5BC3 2019-03-03 06:12:34 20.4 18 22.4
003C5BC3 2019-03-03 05:40:05 20.4 18 22.3
003C5BC3 2019-03-03 05:07:33 20.4 18 22.3
003C5BC3 2019-03-03 04:35:05 20.4 18 22.2
003C5BC3 2019-03-03 04:02:35 20.4 18 22.1
003C5BC3 2019-03-03 03:30:06 20.4 18 22.1
003C5BC3 2019-03-03 02:57:36 20.4 18 20.9
003C5BC3 2019-03-03 02:25:06 20.4 18 20.8
003C5BC3 2019-03-03 01:52:38 20.4 18 19.2
003C5BC3 2019-03-03 01:20:06 20.5 18 16.4
003C5BC3 2019-03-03 00:47:37 20.5 18 16.3
003C5BC3 2019-03-03 00:15:08 20.5 18 16.6
003C5BC3 2019-03-02 23:42:39 20.5 18 16.3
003C5BC3 2019-03-02 23:10:10 20.5 18 15.8
003C5BC3 2019-03-02 22:37:40 20.5 18 18.5
003C5BC3 2019-03-02 22:05:10 20.5 18 18.6
003C5BC3 2019-03-02 21:32:41 20.5 17 18.6
003C5BC3 2019-03-02 21:00:11 20.5 17 20.5
003C5BC3 2019-03-02 20:27:42 20.5 17 20.3
003C5BC3 2019-03-02 19:55:13 20.5 17 20.3
003C5BC3 2019-03-02 19:22:44 20.6 17 20.2
003C5BC3 2019-03-02 18:50:14 20.6 17 20.2
003C5BC3 2019-03-02 18:17:46 20.6 17 20.3
003C5BC3 2019-03-02 17:45:17 20.6 17 20.4
003C5BC3 2019-03-02 17:12:47 20.6 17 20.3
003C5BC3 2019-03-02 16:39:46 20.6 17 20.3
003C5BC3 2019-03-02 16:07:19 20.6 17 20.3
003C5BC3 2019-03-02 15:34:48 20.6 17 20.3
003C5BC3 2019-03-02 15:02:19 20.5 17 20.3
003C5BC3 2019-03-02 14:29:52 20.5 16 20.3
003C5BC3 2019-03-02 13:57:21 20.5 16 20.3
003C5BC3 2019-03-02 13:24:51 20.5 16 20.2
003C5BC3 2019-03-02 12:52:22 20.5 16 20.2
003C5BC3 2019-03-02 12:19:52 20.5 16 20.2
003C5BC3 2019-03-02 11:47:24 20.5 16 20.1
003C5BC3 2019-03-02 11:14:55 20.5 16 20.1
003C5BC3 2019-03-02 10:42:25 20.4 16 20.2
003C5BC3 2019-03-02 10:09:56 20.5 16 18.3
003C5BC3 2019-03-02 09:37:27 20.5 16 18.3
003C5BC3 2019-03-02 09:04:59 20.5 15 18.4
003C5BC3 2019-03-02 08:32:30 20.5 15 18.5
003C5BC3 2019-03-02 08:00:01 20.5 15 15.3
003C5BC3 2019-03-02 07:27:32 20.5 15 15.6
003C5BC3 2019-03-02 06:55:02 20.5 15 15.7
003C5BC3 2019-03-02 06:22:36 20.6 15 16.1
003C5BC3 2019-03-02 05:50:02 20.6 15 16.2
003C5BC3 2019-03-02 05:17:32 20.6 15 16.3
003C5BC3 2019-03-02 04:45:03 20.6 15 16.1
003C5BC3 2019-03-02 04:12:35 20.6 15 16.1
003C5BC3 2019-03-02 03:40:05 20.6 15 16.1
003C5BC3 2019-03-02 03:07:36 20.7 15 16.2
003C5BC3 2019-03-02 02:35:06 20.7 14 16.2
003C5BC3 2019-03-02 02:02:37 20.7 14 16.5
003C5BC3 2019-03-02 01:30:08 20.8 14 16.7
003C5BC3 2019-03-02 00:57:38 20.8 14 17.1
003C5BC3 2019-03-02 00:25:11 20.8 14 17.1
003C5BC3 2019-03-01 23:52:39 20.9 14 17.2
003C5BC3 2019-03-01 23:20:11 20.9 14 17.3
003C5BC3 2019-03-01 22:47:40 21 14 17.3
003C5BC3 2019-03-01 22:15:09 21 14 17.6
003C5BC3 2019-03-01 21:42:42 21.1 14 17.8
003C5BC3 2019-03-01 21:10:11 21.1 14 18.2
003C5BC3 2019-03-01 20:37:42 21.1 14 18.2
003C5BC3 2019-03-01 20:05:13 21.1 14 18.6
003C5BC3 2019-03-01 19:32:44 21.1 14 18.6
003C5BC3 2019-03-01 19:00:15 21.1 14 18.6
003C5BC3 2019-03-01 18:27:46 21.2 14 18.8
003C5BC3 2019-03-01 17:55:16 21.2 14 18.7
003C5BC3 2019-03-01 17:22:47 21.3 14 18.8
003C5BC3 2019-03-01 16:50:17 21.3 15 18.6
003C5BC3 2019-03-01 16:17:47 21.2 15 18.9
003C5BC3 2019-03-01 15:45:18 21.1 15 18.8
003C5BC3 2019-03-01 15:12:48 21 16 18.9
003C5BC3 2019-03-01 14:40:18 20.9 16 18.9
003C5BC3 2019-03-01 14:07:47 20.9 16 18.9
003C5BC3 2019-03-01 13:34:42 20.9 16 18.8
003C5BC3 2019-03-01 13:02:12 20.9 16 19
003C5BC3 2019-03-01 12:29:44 20.9 17 19
003C5BC3 2019-03-01 11:57:13 20.9 17 18.9
003C5BC3 2019-03-01 11:24:43 20.9 17 19
003C5BC3 2019-03-01 10:52:12 20.8 17 19.3
003C5BC3 2019-03-01 10:19:42 20.7 17 19.6
003C5BC3 2019-03-01 09:47:12 20.6 18 19.7
003C5BC3 2019-03-01 09:14:42 20.6 18 19.9
003C5BC3 2019-03-01 08:42:12 20.6 18 19.8
003C5BC3 2019-03-01 08:09:42 20.6 18 19.8
003C5BC3 2019-03-01 07:37:13 20.6 19 19.5
003C5BC3 2019-03-01 07:04:44 20.7 19 19.4
003C5BC3 2019-03-01 06:32:13 20.7 19 19.1
003C5BC3 2019-03-01 05:59:43 20.7 19 20.8
003C5BC3 2019-03-01 05:27:12 20.7 20 20.7
003C5BC3 2019-03-01 04:54:42 20.7 20 20.5
003C5BC3 2019-03-01 04:22:10 20.7 20 20.7
003C5BC3 2019-03-01 03:49:39 20.7 20 20.8
003C5BC3 2019-03-01 03:17:08 20.7 21 20.8
003C5BC3 2019-03-01 02:44:37 20.8 21 20.7
003C5BC3 2019-03-01 02:12:07 20.8 21 20.6
003C5BC3 2019-03-01 01:39:37 20.8 21 20.8
003C5BC3 2019-03-01 01:07:07 20.8 22 20.8
003C5BC3 2019-03-01 00:34:37 20.8 22 20.8
003C5BC3 2019-03-01 00:02:07 20.9 22 20.8
003C5BC3 2019-02-28 23:29:36 20.9 22 20.7
003C5BC3 2019-02-28 22:57:06 20.9 23 20.5
003C5BC3 2019-02-28 22:24:35 20.9 23 21.8
003C5BC3 2019-02-28 21:52:06 21 23 21.6
003C5BC3 2019-02-28 21:19:34 21 23 21.5
003C5BC3 2019-02-28 20:47:05 21 24 21.3
003C5BC3 2019-02-28 20:14:36 21.1 24 21.3
003C5BC3 2019-02-28 19:42:05 21.1 24 21.2
003C5BC3 2019-02-28 19:09:35 21.2 24 21.2
003C5BC3 2019-02-28 18:37:05 21.2 24 21.4
003C5BC3 2019-02-28 18:04:34 21.3 25 21.4
003C5BC3 2019-02-28 17:32:05 21.4 25 21.4
003C5BC3 2019-02-28 16:59:35 21.4 26 21.4
003C5BC3 2019-02-28 16:27:05 21.4 26 20.1
003C5BC3 2019-02-28 15:54:35 21.4 26 20.1
003C5BC3 2019-02-28 15:22:05 21.3 25 20.1
003C5BC3 2019-02-28 14:49:35 21.3 25 19.9
003C5BC3 2019-02-28 14:17:03 21.3 25 20
003C5BC3 2019-02-28 13:44:34 21.3 25 20
003C5BC3 2019-02-28 13:12:05 21.3 25 19.9
003C5BC3 2019-02-28 12:39:36 21.2 25 20
003C5BC3 2019-02-28 12:07:06 21.2 24 19.7
003C5BC3 2019-02-28 11:34:36 21.1 24 19.8
003C5BC3 2019-02-28 11:02:07 21.1 24 19.8
003C5BC3 2019-02-28 10:29:04 20.9 23 19.9
003C5BC3 2019-02-28 09:56:36 20.9 23 20.2
003C5BC3 2019-02-28 09:24:05 20.9 23 18.1
003C5BC3 2019-02-28 08:51:37 20.8 22 18.2
003C5BC3 2019-02-28 08:19:05 20.9 22 18.3
003C5BC3 2019-02-28 07:46:37 20.8 22 18.5
003C5BC3 2019-02-28 07:14:07 20.8 22 18.4
003C5BC3 2019-02-28 06:41:37 20.9 22 18.6
003C5BC3 2019-02-28 06:09:05 20.9 22 18.4
003C5BC3 2019-02-28 05:36:36 20.9 22 17.8
003C5BC3 2019-02-28 05:04:06 20.9 22 17.7
003C5BC3 2019-02-28 04:31:37 20.9 22 17.6
003C5BC3 2019-02-28 03:59:08 20.9 22 17.7
003C5BC3 2019-02-28 03:26:38 20.9 22 17.6
003C5BC3 2019-02-28 02:54:08 20.9 22 17.9
003C5BC3 2019-02-28 02:21:38 20.9 22 18
003C5BC3 2019-02-28 01:49:09 20.9 22 18
003C5BC3 2019-02-28 01:16:38 21 22 17.7
003C5BC3 2019-02-28 00:44:09 21 22 17.6
003C5BC3 2019-02-28 00:11:39 21 23 17.4
003C5BC3 2019-02-27 23:39:09 21.1 23 17.3
003C5BC3 2019-02-27 23:06:38 21.1 23 17.3
003C5BC3 2019-02-27 22:34:08 21.1 23 17.2
003C5BC3 2019-02-27 22:01:39 21.2 23 17.4
003C5BC3 2019-02-27 21:29:07 21.2 23 17.4
003C5BC3 2019-02-27 20:56:38 21.2 23 17.5
003C5BC3 2019-02-27 20:24:09 21.3 23 17.3
003C5BC3 2019-02-27 19:51:39 21.3 24 17.7
003C5BC3 2019-02-27 19:19:12 21.4 24 18
003C5BC3 2019-02-27 18:46:41 21.5 24 17.8
003C5BC3 2019-02-27 18:14:12 21.5 24 17.7
003C5BC3 2019-02-27 17:41:43 21.6 25 18
003C5BC3 2019-02-27 17:09:13 21.7 25 18
003C5BC3 2019-02-27 16:36:43 21.6 26 18.1
003C5BC3 2019-02-27 16:04:13 21.6 26 18.6
003C5BC3 2019-02-27 15:31:44 21.5 26 18.8
003C5BC3 2019-02-27 14:59:14 21.4 26 19
003C5BC3 2019-02-27 14:26:45 21.3 26 19.1
003C5BC3 2019-02-27 13:54:17 21.3 25 19.2
003C5BC3 2019-02-27 13:21:45 21.3 25 19.2
003C5BC3 2019-02-27 12:49:16 21.3 25 19.3
003C5BC3 2019-02-27 12:16:47 21.2 25 19.5
003C5BC3 2019-02-27 11:44:18 21.2 25 19.6
003C5BC3 2019-02-27 11:11:48 21.1 25 19.7
003C5BC3 2019-02-27 10:39:19 21.1 25 19.9
003C5BC3 2019-02-27 10:06:50 21.1 24 20.3
003C5BC3 2019-02-27 09:34:20 21 24 20.5
003C5BC3 2019-02-27 09:01:50 21 24 20.6
003C5BC3 2019-02-27 08:29:20 21 24 20.8
003C5BC3 2019-02-27 07:56:51 21 23 20.9
003C5BC3 2019-02-27 07:23:49 21 24 20.8
003C5BC3 2019-02-27 06:51:19 21 23 20.7
003C5BC3 2019-02-27 06:18:51 21 23 20.7
003C5BC3 2019-02-27 05:46:21 21.1 23 20.6
003C5BC3 2019-02-27 05:13:52 21.1 23 20.7
003C5BC3 2019-02-27 04:41:22 21.1 23 20.5
003C5BC3 2019-02-27 04:08:52 21.1 24 20.5
003C5BC3 2019-02-27 03:36:23 21.1 23 21.7
003C5BC3 2019-02-27 03:03:54 21.1 24 21.5
003C5BC3 2019-02-27 02:31:24 21.2 24 21.4
003C5BC3 2019-02-27 01:58:54 21.2 24 22.4
003C5BC3 2019-02-27 01:26:25 21.2 24 22.3
003C5BC3 2019-02-27 00:53:55 21.2 24 22.3
003C5BC3 2019-02-27 00:21:25 21.3 24 22.2
003C5BC3 2019-02-26 23:48:56 21.3 24 22.1
003C5BC3 2019-02-26 23:16:26 21.4 24 21.9
003C5BC3 2019-02-26 22:43:57 21.4 24 22
003C5BC3 2019-02-26 22:11:28 21.5 24 22.9
003C5BC3 2019-02-26 21:38:59 21.6 24 23.6
003C5BC3 2019-02-26 21:06:29 21.6 24 24.1
003C5BC3 2019-02-26 20:33:59 21.6 24 24.7
003C5BC3 2019-02-26 20:01:30 21.7 24 25.2
003C5BC3 2019-02-26 19:29:00 21.7 24 25.6
003C5BC3 2019-02-26 18:56:29 21.8 24 26
003C5BC3 2019-02-26 18:23:58 21.8 24 26.4
003C5BC3 2019-02-26 17:51:29 21.9 24 26.7
003C5BC3 2019-02-26 17:18:59 21.9 25 27.1
003C5BC3 2019-02-26 16:46:30 21.8 25 27.4
003C5BC3 2019-02-26 16:14:00 21.8 25 27.7
003C5BC3 2019-02-26 15:41:30 21.7 25 27.9
003C5BC3 2019-02-26 15:09:00 21.6 25 28.2
003C5BC3 2019-02-26 14:36:31 21.5 25 28.4
003C5BC3 2019-02-26 14:04:02 21.6 25 28.4
003C5BC3 2019-02-26 13:31:33 21.5 25 28.7
003C5BC3 2019-02-26 12:59:04 21.5 25 28.9
003C5BC3 2019-02-26 12:26:35 21.4 25 28.9
003C5BC3 2019-02-26 11:54:06 21.4 25 29.1
003C5BC3 2019-02-26 11:21:42 21.3 24 29.3
003C5BC3 2019-02-26 10:49:11 21.2 24 29.5
003C5BC3 2019-02-26 10:16:43 21.1 24 29.7
003C5BC3 2019-02-26 09:44:13 21 24 29.8
003C5BC3 2019-02-26 09:11:45 21 23 30
003C5BC3 2019-02-26 08:39:17 21 23 30
003C5BC3 2019-02-26 08:06:48 21 23 30
003C5BC3 2019-02-26 07:34:21 21 23 30
003C5BC3 2019-02-26 07:01:52 21 23 30
003C5BC3 2019-02-26 06:29:22 21 22 30
003C5BC3 2019-02-26 05:56:52 21 22 30
003C5BC3 2019-02-26 05:24:24 21 22 30
003C5BC3 2019-02-26 04:51:55 21 22 30
003C5BC3 2019-02-26 04:18:55 21 22 29.8
003C5BC3 2019-02-26 03:46:26 21.1 22 29.6
003C5BC3 2019-02-26 03:13:56 21 22 29.5
003C5BC3 2019-02-26 02:41:26 21.1 22 29.5
003C5BC3 2019-02-26 02:08:58 21.1 22 29.3
003C5BC3 2019-02-26 01:36:29 21.1 22 29.1
003C5BC3 2019-02-26 01:04:00 21.2 22 28.8
003C5BC3 2019-02-26 00:31:32 21.2 22 28.6
003C5BC3 2019-02-25 23:59:03 21.2 21 28.2
003C5BC3 2019-02-25 23:26:32 21.3 21 28
003C5BC3 2019-02-25 22:54:03 21.3 21 27.7
003C5BC3 2019-02-25 22:21:34 21.4 21 27.4
003C5BC3 2019-02-25 21:49:05 21.4 21 27.1
003C5BC3 2019-02-25 21:16:35 21.5 21 26.7
003C5BC3 2019-02-25 20:44:07 21.5 21 26.4
003C5BC3 2019-02-25 20:11:38 21.5 21 26
003C5BC3 2019-02-25 19:39:08 21.6 21 25.5
003C5BC3 2019-02-25 19:06:38 21.6 21 25.1
003C5BC3 2019-02-25 18:34:08 21.6 22 24.5
003C5BC3 2019-02-25 18:01:38 21.7 22 23.9
003C5BC3 2019-02-25 17:29:07 21.7 22 23.2
003C5BC3 2019-02-25 16:56:36 21.7 22 22.3
003C5BC3 2019-02-25 16:24:05 21.7 22 19.6
003C5BC3 2019-02-25 15:51:36 21.7 23 19.7
003C5BC3 2019-02-25 15:19:08 21.6 23 19.7
003C5BC3 2019-02-25 14:46:38 21.5 23 19.7
003C5BC3 2019-02-25 14:14:06 21.4 23 17.6
003C5BC3 2019-02-25 13:41:41 21.3 23 18.5
003C5BC3 2019-02-25 13:09:08 21.2 23 18.8
003C5BC3 2019-02-25 12:36:38 21.2 22 19.1
003C5BC3 2019-02-25 11:31:39 21 23 19
003C5BC3 2019-02-25 10:59:09 20.9 23 18.9
003C5BC3 2019-02-25 10:26:42 20.9 23 18.7
003C5BC3 2019-02-25 09:54:10 20.7 22 18.9
003C5BC3 2019-02-25 09:21:41 20.7 22 19
003C5BC3 2019-02-25 08:49:12 20.7 22 19.3
003C5BC3 2019-02-25 08:16:44 20.7 22 19.3
003C5BC3 2019-02-25 07:44:15 20.7 22 19.4
003C5BC3 2019-02-25 07:11:45 20.7 22 19.4
003C5BC3 2019-02-25 06:39:15 20.7 22 19.6
003C5BC3 2019-02-25 06:06:46 20.7 22 19.6
003C5BC3 2019-02-25 05:34:17 20.7 22 19.7
003C5BC3 2019-02-25 05:01:47 20.7 22 19.7
003C5BC3 2019-02-25 04:29:18 20.8 22 19.6
003C5BC3 2019-02-25 03:56:49 20.7 22 19.6
003C5BC3 2019-02-25 03:24:22 20.8 22 19.6
003C5BC3 2019-02-25 02:51:50 20.8 22 19.7
003C5BC3 2019-02-25 01:46:50 20.8 22 19.7
003C5BC3 2019-02-25 01:13:48 20.8 22 19.8
003C5BC3 2019-02-25 00:41:19 20.8 23 19.9
003C5BC3 2019-02-25 00:08:50 20.8 23 19.4
003C5BC3 2019-02-24 23:36:20 20.8 23 19.3
003C5BC3 2019-02-24 23:03:50 20.8 23 19
003C5BC3 2019-02-24 22:31:21 20.9 23 19
003C5BC3 2019-02-24 21:58:51 20.9 23 18.9
003C5BC3 2019-02-24 21:26:21 20.9 23 18.9
003C5BC3 2019-02-24 20:53:52 20.9 23 19
003C5BC3 2019-02-24 20:21:23 20.9 23 18.7
003C5BC3 2019-02-24 19:48:53 20.9 23 18.7
003C5BC3 2019-02-24 19:16:24 20.9 22 18.7
003C5BC3 2019-02-24 18:43:54 20.9 22 18.7
003C5BC3 2019-02-24 18:11:24 20.9 22 18.4
003C5BC3 2019-02-24 17:38:54 20.9 22 18.5
003C5BC3 2019-02-24 17:06:25 20.9 22 18.1
003C5BC3 2019-02-24 16:33:56 20.9 22 18
003C5BC3 2019-02-24 16:01:28 20.9 22 18
003C5BC3 2019-02-24 15:29:02 20.9 22 18.3
003C5BC3 2019-02-24 14:56:32 20.9 22 18.4
003C5BC3 2019-02-24 14:24:03 20.9 22 18.2
003C5BC3 2019-02-24 13:51:32 20.9 21 18.6
003C5BC3 2019-02-24 13:19:05 20.9 21 18.6
003C5BC3 2019-02-24 12:46:34 20.9 21 18.5
003C5BC3 2019-02-24 12:14:05 20.9 21 18.7
003C5BC3 2019-02-24 11:41:37 20.9 21 18.5
003C5BC3 2019-02-24 11:09:08 20.9 21 18.4
003C5BC3 2019-02-24 10:36:40 20.9 21 18.5
003C5BC3 2019-02-24 10:04:08 20.9 21 18.5
003C5BC3 2019-02-24 09:31:39 20.9 21 18.9
003C5BC3 2019-02-24 08:59:10 20.9 21 19.1
003C5BC3 2019-02-24 08:26:39 20.9 21 19.2
003C5BC3 2019-02-24 07:54:09 20.9 21 18.9
003C5BC3 2019-02-24 07:21:39 20.9 21 19.1
003C5BC3 2019-02-24 06:49:09 20.9 21 19.3
003C5BC3 2019-02-24 06:16:39 20.9 20 19.4
003C5BC3 2019-02-24 05:44:09 21 20 19.3
003C5BC3 2019-02-24 05:11:40 21 20 19.4
003C5BC3 2019-02-24 04:39:10 21 20 19.6
003C5BC3 2019-02-24 04:06:43 21 20 19.5
003C5BC3 2019-02-24 03:34:11 21 20 19.5
003C5BC3 2019-02-24 03:01:41 21 20 19.4
003C5BC3 2019-02-24 02:29:11 21 20 19.4
003C5BC3 2019-02-24 01:56:41 21 20 19.1
003C5BC3 2019-02-24 01:24:15 21.1 20 19.3
003C5BC3 2019-02-24 00:51:43 21.1 20 19.1
003C5BC3 2019-02-24 00:19:17 21.1 19 18.9
003C5BC3 2019-02-23 23:46:45 21.1 19 18.9
003C5BC3 2019-02-23 23:14:16 21.1 19 18.9
003C5BC3 2019-02-23 22:41:47 21.2 19 18.9
003C5BC3 2019-02-23 22:08:45 21.2 19 18.7
003C5BC3 2019-02-23 21:36:15 21.2 19 18.7
003C5BC3 2019-02-23 21:03:46 21.3 19 18.7
003C5BC3 2019-02-23 20:31:15 21.3 18 18.6
003C5BC3 2019-02-23 19:58:47 21.3 18 18.7
003C5BC3 2019-02-23 19:26:17 21.3 18 18.9
003C5BC3 2019-02-23 18:53:47 21.3 18 18.8
003C5BC3 2019-02-23 18:21:18 21.3 17 18.9
003C5BC3 2019-02-23 17:48:49 21.3 17 18.7
003C5BC3 2019-02-23 17:16:20 21.3 17 18.8
003C5BC3 2019-02-23 16:43:52 21.2 17 18.8
003C5BC3 2019-02-23 16:11:22 21.2 17 18.6
003C5BC3 2019-02-23 15:38:54 21.1 17 18.7
003C5BC3 2019-02-23 15:06:22 21 16 18.7
003C5BC3 2019-02-23 14:33:53 21 16 18.8
003C5BC3 2019-02-23 14:01:27 21 16 18.8
003C5BC3 2019-02-23 12:56:27 21 15 18.7
003C5BC3 2019-02-23 12:23:58 21 15 18.6
003C5BC3 2019-02-23 11:51:29 21 15 18.7
003C5BC3 2019-02-23 11:18:59 20.9 15 18.7
003C5BC3 2019-02-23 10:46:29 21 15 18.7
003C5BC3 2019-02-23 10:14:00 20.9 15 18.8
003C5BC3 2019-02-23 09:41:32 20.9 14 19.1
003C5BC3 2019-02-23 09:09:04 21 14 19.2
003C5BC3 2019-02-23 08:36:33 20.9 14 19.1
003C5BC3 2019-02-23 08:04:06 21 14 19
003C5BC3 2019-02-23 07:31:34 20.9 14 18.6
003C5BC3 2019-02-23 06:59:05 20.9 14 18.5
003C5BC3 2019-02-23 06:26:37 20.9 13 18.7
003C5BC3 2019-02-23 05:54:08 21 13 18.9
003C5BC3 2019-02-23 05:21:40 20.9 13 18.6
003C5BC3 2019-02-23 04:49:10 20.9 13 18.6
003C5BC3 2019-02-23 04:16:40 21 13 18.8
003C5BC3 2019-02-23 03:44:13 20.9 13 18.7
003C5BC3 2019-02-23 03:11:45 21 13 18.5
003C5BC3 2019-02-23 02:39:17 21 12 18.6
003C5BC3 2019-02-23 02:06:47 21 12 18.9
003C5BC3 2019-02-23 01:34:18 21 12 19
003C5BC3 2019-02-23 01:01:49 21 12 18.9
003C5BC3 2019-02-23 00:29:21 21 12 18.7
003C5BC3 2019-02-22 23:56:51 21 12 18.7
003C5BC3 2019-02-22 23:24:22 21.1 12 18.7
003C5BC3 2019-02-22 22:51:53 21.1 12 18.6
003C5BC3 2019-02-22 22:19:25 21.1 12 18.8
003C5BC3 2019-02-22 21:46:55 21.1 12 19.1
003C5BC3 2019-02-22 21:14:27 21.2 12 19.3
003C5BC3 2019-02-22 20:41:57 21.2 12 19.2
003C5BC3 2019-02-22 20:09:28 21.2 12 18.9
003C5BC3 2019-02-22 19:36:59 21.2 12 18.6
003C5BC3 2019-02-22 19:03:50 21.3 12 19
003C5BC3 2019-02-22 18:52:54 21.3 12 19.1
003C5BC3 2019-02-22 18:41:57 21.2 12 19.1
003C5BC3 2019-02-22 18:31:02 21.3 12 18.7
003C5BC3 2019-02-22 18:20:06 21.3 12 18.3
003C5BC3 2019-02-22 18:09:11 21.3 12 18.4
003C5BC3 2019-02-22 17:58:15 21.3 12 18
003C5BC3 2019-02-22 17:47:19 21.3 12 17.7
003C5BC3 2019-02-22 17:36:23 21.3 12 17.6
003C5BC3 2019-02-22 17:25:28 21.3 12 17.8
003C5BC3 2019-02-22 17:14:31 21.3 12 17.6
003C5BC3 2019-02-22 17:03:36 21.3 12 17.4
003C5BC3 2019-02-22 16:52:41 21.3 12 17.6
003C5BC3 2019-02-22 16:41:45 21.2 12 17.7
003C5BC3 2019-02-22 16:30:49 21.2 12 17.7
003C5BC3 2019-02-22 16:19:53 21.2 12 17.8
003C5BC3 2019-02-22 16:08:57 21.2 12 17.8
003C5BC3 2019-02-22 15:58:02 21.2 12 17.5
003C5BC3 2019-02-22 15:47:06 21.1 12 17.2
003C5BC3 2019-02-22 15:36:10 21.1 12 16.9
003C5BC3 2019-02-22 15:25:15 21.1 12 17.1
003C5BC3 2019-02-22 15:14:21 21 13 17.1
003C5BC3 2019-02-22 15:03:25 21 13 17.1
003C5BC3 2019-02-22 14:52:29 21 13 17
003C5BC3 2019-02-22 14:41:32 21 13 16.8
003C5BC3 2019-02-22 14:30:36 21 13 17
003C5BC3 2019-02-22 14:19:40 20.9 13 17
003C5BC3 2019-02-22 14:08:44 20.9 13 19.5
003C5BC3 2019-02-22 13:57:49 20.9 13 19.6
003C5BC3 2019-02-22 13:46:53 20.9 13 19.6
003C5BC3 2019-02-22 13:36:00 20.9 13 19.6
003C5BC3 2019-02-22 13:25:04 20.9 13 19.8
003C5BC3 2019-02-22 13:14:07 20.9 13 19.7
003C5BC3 2019-02-22 13:03:11 20.8 13 19.9
003C5BC3 2019-02-22 12:52:15 20.8 13 19.9
003C5BC3 2019-02-22 12:41:19 20.8 13 19.8
003C5BC3 2019-02-22 12:30:24 20.8 13 19.8
003C5BC3 2019-02-22 12:19:28 20.8 13 19.8
003C5BC3 2019-02-22 12:08:35 20.8 13 20
003C5BC3 2019-02-22 11:57:40 20.7 13 20
003C5BC3 2019-02-22 11:46:42 20.7 13 19.9
003C5BC3 2019-02-22 11:35:46 20.7 13 20
003C5BC3 2019-02-22 11:24:51 20.7 13 20
003C5BC3 2019-02-22 11:13:55 20.7 13 20
003C5BC3 2019-02-22 11:03:00 20.6 13 19.9
003C5BC3 2019-02-22 10:52:04 20.6 13 20.1
003C5BC3 2019-02-22 10:41:09 20.6 13 20.2
003C5BC3 2019-02-22 10:30:14 20.6 13 20.2
003C5BC3 2019-02-22 10:19:18 20.6 13 20.2
003C5BC3 2019-02-22 10:08:26 20.6 13 20.3
003C5BC3 2019-02-22 09:56:52 20.6 13 18.3
003C5BC3 2019-02-22 09:45:59 20.6 13 18.4
003C5BC3 2019-02-22 09:35:03 20.6 13 18.4
003C5BC3 2019-02-22 09:24:07 20.6 13 18.6
003C5BC3 2019-02-22 09:13:10 20.6 13 18.8
003C5BC3 2019-02-22 09:02:13 20.6 13 18.7
003C5BC3 2019-02-22 08:51:17 20.6 13 18.8
003C5BC3 2019-02-22 08:40:22 20.6 13 18.6
003C5BC3 2019-02-22 08:29:26 20.6 13 18.8
003C5BC3 2019-02-22 08:18:31 20.6 13 18.6
003C5BC3 2019-02-22 08:07:36 20.6 13 18.9
003C5BC3 2019-02-22 07:56:40 20.6 13 19.3
003C5BC3 2019-02-22 07:45:45 20.6 13 19.1
003C5BC3 2019-02-22 07:34:49 20.6 13 19.4
003C5BC3 2019-02-22 07:23:53 20.6 13 19.7
003C5BC3 2019-02-22 07:12:58 20.6 13 19.9
003C5BC3 2019-02-22 07:02:02 20.6 13 20
003C5BC3 2019-02-22 06:51:06 20.6 13 20.1
003C5BC3 2019-02-22 06:40:11 20.6 13 20.2
003C5BC3 2019-02-22 06:29:18 20.6 13 20
003C5BC3 2019-02-22 06:18:20 20.6 13 19.9
003C5BC3 2019-02-22 06:07:24 20.6 13 20
003C5BC3 2019-02-22 05:56:29 20.7 13 19.9
003C5BC3 2019-02-22 05:45:33 20.6 13 19.7
003C5BC3 2019-02-22 05:34:38 20.6 13 19.7
003C5BC3 2019-02-22 05:23:42 20.7 13 19.8
003C5BC3 2019-02-22 05:12:45 20.7 13 19.6
003C5BC3 2019-02-22 05:01:49 20.7 13 19.6
003C5BC3 2019-02-22 04:50:54 20.7 13 19.4
003C5BC3 2019-02-22 04:39:58 20.7 13 19.4
003C5BC3 2019-02-22 04:29:02 20.7 13 19.5
003C5BC3 2019-02-22 04:18:06 20.7 13 19.5
003C5BC3 2019-02-22 04:07:12 20.7 13 19.6
003C5BC3 2019-02-22 03:56:15 20.7 13 19.3
003C5BC3 2019-02-22 03:45:20 20.7 13 19.5
003C5BC3 2019-02-22 03:34:24 20.7 13 19.3
003C5BC3 2019-02-22 03:23:27 20.7 13 18.9
003C5BC3 2019-02-22 03:12:32 20.7 13 18.9
003C5BC3 2019-02-22 03:01:36 20.7 14 18.6
003C5BC3 2019-02-22 02:50:39 20.7 13 20.2
003C5BC3 2019-02-22 02:39:44 20.7 14 20.2
003C5BC3 2019-02-22 02:28:48 20.7 13 19.9
003C5BC3 2019-02-22 02:17:51 20.7 13 19.8
003C5BC3 2019-02-22 02:06:56 20.8 13 19.7
003C5BC3 2019-02-22 01:56:01 20.8 13 19.7
003C5BC3 2019-02-22 01:45:05 20.7 14 19.7
003C5BC3 2019-02-22 01:34:09 20.8 14 19.6
003C5BC3 2019-02-22 01:23:13 20.8 14 19.6
003C5BC3 2019-02-22 01:12:17 20.8 14 19.6
003C5BC3 2019-02-22 01:01:22 20.8 13 19.8
003C5BC3 2019-02-22 00:49:52 20.8 14 19.8
003C5BC3 2019-02-22 00:38:58 20.8 13 19.8
003C5BC3 2019-02-22 00:28:00 20.8 14 19.8
003C5BC3 2019-02-22 00:17:05 20.8 14 19.7
003C5BC3 2019-02-22 00:06:11 20.8 14 19.5
003C5BC3 2019-02-21 23:55:13 20.8 14 19.5
003C5BC3 2019-02-21 23:44:16 20.8 13 19.5
003C5BC3 2019-02-21 23:33:22 20.9 14 19.7
003C5BC3 2019-02-21 23:22:26 20.9 14 19.5
003C5BC3 2019-02-21 23:11:30 20.9 14 19.6
003C5BC3 2019-02-21 23:00:34 20.9 14 19.7
003C5BC3 2019-02-21 22:49:40 20.9 14 19.6
003C5BC3 2019-02-21 22:38:45 20.9 14 19.6
003C5BC3 2019-02-21 22:27:49 20.9 14 17.3
003C5BC3 2019-02-21 22:16:53 20.9 14 17.3
003C5BC3 2019-02-21 22:05:57 20.9 14 17.7
003C5BC3 2019-02-21 21:55:01 20.9 14 17.5
003C5BC3 2019-02-21 21:44:06 21 14 17.6
003C5BC3 2019-02-21 21:33:11 21 14 17.5
003C5BC3 2019-02-21 21:22:15 21 14 17.5
003C5BC3 2019-02-21 21:11:20 21 14 17.7
003C5BC3 2019-02-21 21:00:24 21 14 17.8
003C5BC3 2019-02-21 20:49:29 21 14 17.9
003C5BC3 2019-02-21 20:38:33 21 14 17.5
003C5BC3 2019-02-21 20:27:37 21.1 14 17.2
003C5BC3 2019-02-21 20:16:40 21.1 14 17.3
003C5BC3 2019-02-21 20:05:45 21.1 14 19.7
003C5BC3 2019-02-21 19:54:49 21.1 14 21.2
003C5BC3 2019-02-21 19:43:53 21.1 14 21.2
003C5BC3 2019-02-21 19:32:57 21.1 14 22.3
003C5BC3 2019-02-21 19:22:02 21.1 14 23.1
003C5BC3 2019-02-21 19:11:05 21.1 14 23.9
003C5BC3 2019-02-21 19:00:10 21.2 14 23.8
003C5BC3 2019-02-21 18:49:15 21.2 14 23.8
003C5BC3 2019-02-21 18:38:19 21.2 14 23.8
003C5BC3 2019-02-21 18:27:23 21.2 14 23.7
003C5BC3 2019-02-21 18:16:27 21.2 14 23.7
003C5BC3 2019-02-21 18:05:32 21.2 14 23.7
003C5BC3 2019-02-21 17:54:35 21.2 14 23.6
003C5BC3 2019-02-21 17:43:41 21.2 14 23.6
003C5BC3 2019-02-21 17:32:46 21.2 14 23.5
003C5BC3 2019-02-21 17:21:48 21.2 14 23.5
003C5BC3 2019-02-21 17:10:52 21.1 14 23.5
003C5BC3 2019-02-21 16:59:55 21.1 14 23.6
003C5BC3 2019-02-21 16:49:02 21.1 14 23.6
003C5BC3 2019-02-21 16:38:04 21 14 23.6
003C5BC3 2019-02-21 16:27:08 21 14 23.6
003C5BC3 2019-02-21 16:16:13 20.9 14 23.6
003C5BC3 2019-02-21 16:05:17 20.9 14 23.6
003C5BC3 2019-02-21 15:54:21 20.9 14 23.6
003C5BC3 2019-02-21 15:42:52 20.8 14 23.6
003C5BC3 2019-02-21 14:05:25 20.7 15 22.8
003C5BC3 2019-02-21 13:32:55 20.7 15 21.8
003C5BC3 2019-02-21 13:00:30 20.7 16 21.8
003C5BC3 2019-02-21 12:27:56 20.7 16 20.5
003C5BC3 2019-02-21 11:55:25 20.7 17 18.7
003C5BC3 2019-02-21 11:22:56 20.7 17 15.5
003C5BC3 2019-02-21 10:18:00 20.7 17 15.5
003C5BC3 2019-02-21 09:45:26 20.7 17 15.8
003C5BC3 2019-02-21 09:12:57 20.7 18 15.9
003C5BC3 2019-02-21 08:40:28 20.7 18 16.1
003C5BC3 2019-02-21 08:07:59 20.7 18 16.6
003C5BC3 2019-02-21 07:35:33 20.7 18 16.6
003C5BC3 2019-02-21 07:03:00 20.7 19 16.6
003C5BC3 2019-02-21 06:30:31 20.7 19 16.5
003C5BC3 2019-02-21 05:58:01 20.8 19 16.4
003C5BC3 2019-02-21 05:25:31 20.8 19 16.5
003C5BC3 2019-02-21 04:53:03 20.8 19 16.1
003C5BC3 2019-02-21 04:20:32 20.8 19 16
003C5BC3 2019-02-21 03:48:01 20.8 19 15.6
003C5BC3 2019-02-21 03:15:31 20.8 20 15.3
003C5BC3 2019-02-21 02:43:00 20.8 20 15.3
003C5BC3 2019-02-21 02:10:34 20.8 20 18.7
003C5BC3 2019-02-21 01:38:03 20.8 20 18.7
003C5BC3 2019-02-21 01:05:34 20.8 20 20.4
003C5BC3 2019-02-21 00:33:04 20.8 20 21.8
003C5BC3 2019-02-21 00:00:35 20.9 20 21.7
003C5BC3 2019-02-20 23:28:04 20.9 21 21.7
003C5BC3 2019-02-20 22:55:35 20.9 21 21.7
003C5BC3 2019-02-20 22:23:05 20.9 21 22.7
003C5BC3 2019-02-20 21:50:36 20.9 21 22.7
003C5BC3 2019-02-20 21:18:08 20.9 21 22.7
003C5BC3 2019-02-20 20:45:39 20.9 21 22.8
003C5BC3 2019-02-20 20:13:09 20.9 21 22.8
003C5BC3 2019-02-20 19:40:40 20.9 21 22.9
003C5BC3 2019-02-20 19:08:10 20.9 21 23
003C5BC3 2019-02-20 18:35:42 20.9 22 22.9
003C5BC3 2019-02-20 18:03:11 20.9 22 22.9
003C5BC3 2019-02-20 17:30:41 21 22 23
003C5BC3 2019-02-20 16:58:13 21 23 23
003C5BC3 2019-02-20 16:25:45 20.9 23 23
003C5BC3 2019-02-20 15:53:12 20.9 23 23.1
003C5BC3 2019-02-20 15:20:41 20.9 24 23.1
003C5BC3 2019-02-20 14:15:41 20.9 24 23.1